Time,TemperatureF,DewpointF,PressureIn,WindDirection,WindDirectionDegrees,WindSpeedMPH,WindSpeedGustMPH,Humidity,HourlyPrecipIn,Conditions,Clouds,dailyrainin,SolarRadiationWatts/m^2,SoftwareType,DateUTC
2013-03-02 00:00:00,57.6,15.6,30.24,East,89,0.0,0.0,19,0.00,CLR,FEW,0.00,0.0,WeatherDisplay:10.37,2013-03-02 08:00:00,
2013-03-02 00:01:00,57.3,15.3,30.24,East,96,0.0,0.0,19,0.00,CLR,FEW,0.00,0.0,WeatherDisplay:10.37,2013-03-02 08:01:00,
2013-03-02 00:03:00,56.7,16.0,30.24,East,96,0.0,0.0,20,0.00,CLR,FEW,0.00,0.0,WeatherDisplay:10.37,2013-03-02 08:03:00,
2013-03-02 00:05:00,56.5,15.8,30.24,East,94,0.0,0.0,20,0.00,CLR,FEW,0.00,0.0,WeatherDisplay:10.37,2013-03-02 08:05:00,
2013-03-02 00:06:00,56.3,15.7,30.24,East,94,0.0,0.0,20,0.00,CLR,FEW,0.00,0.0,WeatherDisplay:10.37,2013-03-02 08:06:00,
2013-03-02 00:08:00,56.5,14.7,30.24,East,88,0.0,0.0,19,0.00,CLR,FEW,0.00,0.0,WeatherDisplay:10.37,2013-03-02 08:08:00,
2013-03-02 00:09:00,56.6,14.8,30.24,East,88,0.0,0.0,19,0.00,CLR,FEW,0.00,0.0,WeatherDisplay:10.37,2013-03-02 08:09:00,
2013-03-02 00:11:00,56.7,14.8,30.24,East,88,0.0,0.0,19,0.00,CLR,FEW,0.00,0.0,WeatherDisplay:10.37,2013-03-02 08:11:00,
2013-03-02 00:13:00,56.7,14.8,30.24,East,88,0.0,0.0,19,0.00,CLR,FEW,0.00,0.0,WeatherDisplay:10.37,2013-03-02 08:13:00,
2013-03-02 00:14:00,56.9,15.0,30.24,East,92,0.0,0.0,19,0.00,CLR,FEW,0.00,0.0,WeatherDisplay:10.37,2013-03-02 08:14:00,
2013-03-02 00:16:00,57.6,14.3,30.24,ESE,107,3.5,9.2,18,0.00,CLR,FEW,0.00,0.0,WeatherDisplay:10.37,2013-03-02 08:16:00,
2013-03-02 00:18:00,58.3,13.6,30.24,East,99,0.3,3.5,17,0.00,CLR,FEW,0.00,0.0,WeatherDisplay:10.37,2013-03-02 08:18:00,
2013-03-02 00:20:00,58.6,13.9,30.24,ESE,113,0.0,0.0,17,0.00,CLR,FEW,0.00,0.0,WeatherDisplay:10.37,2013-03-02 08:20:00,
2013-03-02 00:21:00,58.7,13.9,30.24,NNE,32,0.3,1.2,17,0.00,CLR,FEW,0.00,0.0,WeatherDisplay:10.37,2013-03-02 08:21:00,
2013-03-02 00:23:00,58.7,15.2,30.24,ESE,103,0.0,0.0,18,0.00,CLR,FEW,0.00,0.0,WeatherDisplay:10.37,2013-03-02 08:23:00,
2013-03-02 00:25:00,58.7,13.9,30.24,ESE,107,1.3,5.8,17,0.00,CLR,FEW,0.00,0.0,WeatherDisplay:10.37,2013-03-02 08:25:00,
2013-03-02 00:26:00,58.4,13.7,30.24,ESE,107,0.0,0.0,17,0.00,CLR,FEW,0.00,0.0,WeatherDisplay:10.37,2013-03-02 08:26:00,
2013-03-02 00:27:00,58.4,13.7,30.24,ESE,107,0.0,0.0,17,0.00,CLR,FEW,0.00,0.0,WeatherDisplay:10.37,2013-03-02 08:27:00,
2013-03-02 00:28:00,58.3,13.6,30.24,ESE,113,1.5,6.9,17,0.00,CLR,FEW,0.00,0.0,WeatherDisplay:10.37,2013-03-02 08:28:00,
2013-03-02 00:30:00,58.4,13.7,30.24,East,98,0.7,10.4,17,0.00,CLR,FEW,0.00,0.0,WeatherDisplay:10.37,2013-03-02 08:30:00,
2013-03-02 00:31:00,58.3,13.6,30.24,ESE,105,0.1,1.2,17,0.00,CLR,FEW,0.00,0.0,WeatherDisplay:10.37,2013-03-02 08:31:00,
2013-03-02 00:32:00,58.3,13.6,30.24,ESE,107,0.0,0.0,17,0.00,CLR,FEW,0.00,0.0,WeatherDisplay:10.37,2013-03-02 08:32:00,
2013-03-02 00:34:00,58.3,13.6,30.24,East,97,0.0,2.3,17,0.00,CLR,FEW,0.00,0.0,WeatherDisplay:10.37,2013-03-02 08:34:00,
2013-03-02 00:36:00,58.3,13.6,30.24,ESE,105,1.6,5.8,17,0.00,CLR,FEW,0.00,0.0,WeatherDisplay:10.37,2013-03-02 08:36:00,
2013-03-02 00:37:00,58.4,13.7,30.24,East,101,0.0,6.9,17,0.00,CLR,FEW,0.00,0.0,WeatherDisplay:10.37,2013-03-02 08:37:00,
2013-03-02 00:39:00,58.3,13.6,30.24,East,98,0.0,0.0,17,0.00,CLR,FEW,0.00,0.0,WeatherDisplay:10.37,2013-03-02 08:39:00,
2013-03-02 00:41:00,58.3,13.6,30.24,East,92,0.4,3.5,17,0.00,CLR,FEW,0.00,0.0,WeatherDisplay:10.37,2013-03-02 08:41:00,
2013-03-02 00:42:00,58.4,13.7,30.24,East,91,0.0,3.5,17,0.00,CLR,FEW,0.00,0.0,WeatherDisplay:10.37,2013-03-02 08:42:00,
2013-03-02 00:44:00,58.4,13.7,30.24,East,95,0.0,0.0,17,0.00,CLR,FEW,0.00,0.0,WeatherDisplay:10.37,2013-03-02 08:44:00,
2013-03-02 00:46:00,58.4,13.7,30.25,East,98,1.1,2.3,17,0.00,CLR,FEW,0.00,0.0,WeatherDisplay:10.37,2013-03-02 08:46:00,
2013-03-02 00:47:00,58.4,13.7,30.25,East,98,0.0,6.9,17,0.00,CLR,FEW,0.00,0.0,WeatherDisplay:10.37,2013-03-02 08:47:00,
2013-03-02 00:48:00,58.3,13.6,30.25,East,98,0.0,0.0,17,0.00,CLR,FEW,0.00,0.0,WeatherDisplay:10.37,2013-03-02 08:48:00,
2013-03-02 00:50:00,58.1,13.4,30.25,ESE,119,0.1,1.3,17,0.00,CLR,FEW,0.00,0.0,WeatherDisplay:10.37,2013-03-02 08:50:00,
2013-03-02 00:51:00,58.1,13.4,30.25,ESE,103,0.0,1.2,17,0.00,CLR,FEW,0.00,0.0,WeatherDisplay:10.37,2013-03-02 08:51:00,
2013-03-02 00:52:00,58.1,14.8,30.25,East,101,0.0,0.0,18,0.00,CLR,FEW,0.00,0.0,WeatherDisplay:10.37,2013-03-02 08:52:00,
2013-03-02 00:53:00,58.0,14.7,30.25,East,98,0.0,0.0,18,0.00,CLR,FEW,0.00,0.0,WeatherDisplay:10.37,2013-03-02 08:53:00,
2013-03-02 00:55:00,58.4,13.7,30.25,SE,133,2.5,3.5,17,0.00,CLR,FEW,0.00,0.0,WeatherDisplay:10.37,2013-03-02 08:55:00,
2013-03-02 00:56:00,58.9,12.7,30.25,East,84,1.4,10.4,16,0.00,CLR,FEW,0.00,0.0,WeatherDisplay:10.37,2013-03-02 08:56:00,
2013-03-02 00:58:00,59.2,13.0,30.25,ESE,107,0.0,2.3,16,0.00,CLR,FEW,0.00,0.0,WeatherDisplay:10.37,2013-03-02 08:58:00,
2013-03-02 01:00:00,59.5,13.2,30.25,East,94,0.0,0.0,16,0.00,CLR,FEW,0.00,0.0,WeatherDisplay:10.37,2013-03-02 09:00:00,
2013-03-02 01:01:00,59.5,13.2,30.25,ENE,62,0.0,0.0,16,0.00,CLR,FEW,0.00,0.0,WeatherDisplay:10.37,2013-03-02 09:01:00,
2013-03-02 01:03:00,59.3,14.4,30.25,ENE,62,0.0,0.0,17,0.00,CLR,FEW,0.00,0.0,WeatherDisplay:10.37,2013-03-02 09:03:00,
2013-03-02 01:05:00,59.2,14.3,30.25,East,84,0.0,0.0,17,0.00,CLR,FEW,0.00,0.0,WeatherDisplay:10.37,2013-03-02 09:05:00,
2013-03-02 01:07:00,59.0,14.2,30.25,ESE,104,0.0,0.0,17,0.00,CLR,FEW,0.00,0.0,WeatherDisplay:10.37,2013-03-02 09:07:00,
2013-03-02 01:08:00,59.0,14.2,30.25,ESE,109,0.2,0.0,17,0.00,CLR,FEW,0.00,0.0,WeatherDisplay:10.37,2013-03-02 09:08:00,
2013-03-02 01:11:00,58.9,14.1,30.25,ENE,59,0.0,0.0,17,0.00,CLR,FEW,0.00,0.0,WeatherDisplay:10.37,2013-03-02 09:11:00,
2013-03-02 01:13:00,58.7,13.9,30.25,ENE,67,1.0,0.0,17,0.00,CLR,FEW,0.00,0.0,WeatherDisplay:10.37,2013-03-02 09:13:00,
2013-03-02 01:14:00,58.5,13.8,30.25,East,88,0.0,0.0,17,0.00,CLR,FEW,0.00,0.0,WeatherDisplay:10.37,2013-03-02 09:14:00,
2013-03-02 01:16:00,58.4,13.7,30.23,ESE,116,2.9,0.0,17,0.00,CLR,FEW,0.00,0.0,WeatherDisplay:10.37,2013-03-02 09:16:00,
2013-03-02 01:18:00,58.6,13.9,30.23,ESE,103,3.5,11.7,17,0.00,CLR,FEW,0.00,0.0,WeatherDisplay:10.37,2013-03-02 09:18:00,
2013-03-02 01:19:00,58.6,13.9,30.23,East,100,3.0,0.0,17,0.00,CLR,FEW,0.00,0.0,WeatherDisplay:10.37,2013-03-02 09:19:00,
2013-03-02 01:22:00,58.9,14.1,30.23,East,96,1.8,6.9,17,0.00,CLR,FEW,0.00,0.0,WeatherDisplay:10.37,2013-03-02 09:22:00,
2013-03-02 01:24:00,58.9,14.1,30.23,East,99,3.0,0.0,17,0.00,CLR,FEW,0.00,0.0,WeatherDisplay:10.37,2013-03-02 09:24:00,
2013-03-02 01:25:00,58.7,13.9,30.23,ESE,107,4.5,9.1,17,0.00,CLR,FEW,0.00,0.0,WeatherDisplay:10.37,2013-03-02 09:25:00,
2013-03-02 01:26:00,58.7,13.9,30.23,ESE,110,5.2,9.2,17,0.00,CLR,FEW,0.00,0.0,WeatherDisplay:10.37,2013-03-02 09:26:00,
2013-03-02 01:27:00,58.7,13.9,30.23,ESE,107,1.4,6.9,17,0.00,CLR,FEW,0.00,0.0,WeatherDisplay:10.37,2013-03-02 09:27:00,
2013-03-02 01:30:00,58.3,13.6,30.23,ESE,108,0.5,5.8,17,0.00,CLR,FEW,0.00,0.0,WeatherDisplay:10.37,2013-03-02 09:30:00,
2013-03-02 01:31:00,58.3,13.6,30.23,ESE,109,0.3,2.3,17,0.00,CLR,FEW,0.00,0.0,WeatherDisplay:10.37,2013-03-02 09:31:00,
2013-03-02 01:32:00,58.0,13.4,30.23,East,88,0.5,1.2,17,0.00,CLR,FEW,0.00,0.0,WeatherDisplay:10.37,2013-03-02 09:32:00,
2013-03-02 01:35:00,57.5,14.3,30.23,East,94,0.0,0.0,18,0.00,CLR,FEW,0.00,0.0,WeatherDisplay:10.37,2013-03-02 09:35:00,
2013-03-02 01:36:00,57.5,14.3,30.23,East,86,0.0,0.0,18,0.00,CLR,FEW,0.00,0.0,WeatherDisplay:10.37,2013-03-02 09:36:00,
2013-03-02 01:37:00,57.3,14.1,30.23,East,88,1.4,6.9,18,0.00,CLR,FEW,0.00,0.0,WeatherDisplay:10.37,2013-03-02 09:37:00,
2013-03-02 01:38:00,57.3,14.1,30.23,ESE,105,0.0,6.9,18,0.00,CLR,FEW,0.00,0.0,WeatherDisplay:10.37,2013-03-02 09:38:00,
2013-03-02 01:40:00,57.3,14.1,30.23,ENE,71,0.0,0.0,18,0.00,CLR,FEW,0.00,0.0,WeatherDisplay:10.37,2013-03-02 09:40:00,
2013-03-02 01:41:00,57.3,14.1,30.23,ENE,69,0.0,0.0,18,0.00,CLR,FEW,0.00,0.0,WeatherDisplay:10.37,2013-03-02 09:41:00,
2013-03-02 01:42:00,57.3,14.1,30.23,East,98,0.0,0.0,18,0.00,CLR,FEW,0.00,0.0,WeatherDisplay:10.37,2013-03-02 09:42:00,
2013-03-02 01:44:00,57.3,14.1,30.23,NE,56,0.0,3.5,18,0.00,CLR,FEW,0.00,0.0,WeatherDisplay:10.37,2013-03-02 09:44:00,
2013-03-02 01:45:00,57.3,14.1,30.23,ENE,78,0.1,1.3,18,0.00,CLR,FEW,0.00,0.0,WeatherDisplay:10.37,2013-03-02 09:45:00,
2013-03-02 01:46:00,57.3,14.1,30.23,East,82,0.1,1.2,18,0.00,CLR,FEW,0.00,0.0,WeatherDisplay:10.37,2013-03-02 09:46:00,
2013-03-02 01:48:00,57.5,14.3,30.23,ESE,115,0.0,0.0,18,0.00,CLR,FEW,0.00,0.0,WeatherDisplay:10.37,2013-03-02 09:48:00,
2013-03-02 01:50:00,57.8,13.2,30.23,ENE,77,0.0,1.2,17,0.00,CLR,FEW,0.00,0.0,WeatherDisplay:10.37,2013-03-02 09:50:00,
2013-03-02 01:51:00,57.8,14.5,30.23,ENE,63,0.0,0.0,18,0.00,CLR,FEW,0.00,0.0,WeatherDisplay:10.37,2013-03-02 09:51:00,
2013-03-02 01:52:00,57.8,14.5,30.23,ENE,66,0.0,0.0,18,0.00,CLR,FEW,0.00,0.0,WeatherDisplay:10.37,2013-03-02 09:52:00,
2013-03-02 01:55:00,57.6,14.3,30.23,ENE,65,0.0,0.0,18,0.00,CLR,FEW,0.00,0.0,WeatherDisplay:10.37,2013-03-02 09:55:00,
2013-03-02 01:57:00,57.8,13.2,30.23,NE,38,0.0,0.0,17,0.00,CLR,FEW,0.00,0.0,WeatherDisplay:10.37,2013-03-02 09:57:00,
2013-03-02 01:58:00,57.8,14.5,30.23,East,95,0.0,0.0,18,0.00,CLR,FEW,0.00,0.0,WeatherDisplay:10.37,2013-03-02 09:58:00,
2013-03-02 02:00:00,58.1,13.4,30.22,East,85,0.0,0.0,17,0.00,CLR,FEW,0.00,0.0,WeatherDisplay:10.37,2013-03-02 10:00:00,
2013-03-02 02:01:00,58.3,13.6,30.22,East,84,0.0,0.0,17,0.00,CLR,FEW,0.00,0.0,WeatherDisplay:10.37,2013-03-02 10:01:00,
2013-03-02 02:03:00,58.4,13.7,30.22,East,84,0.0,0.0,17,0.00,CLR,FEW,0.00,0.0,WeatherDisplay:10.37,2013-03-02 10:03:00,
2013-03-02 02:06:00,58.0,13.4,30.22,East,90,0.0,0.0,17,0.00,CLR,FEW,0.00,0.0,WeatherDisplay:10.37,2013-03-02 10:06:00,
2013-03-02 02:07:00,58.0,13.4,30.22,East,90,0.0,0.0,17,0.00,CLR,FEW,0.00,0.0,WeatherDisplay:10.37,2013-03-02 10:07:00,
2013-03-02 02:09:00,58.0,13.4,30.22,East,88,0.0,0.0,17,0.00,CLR,FEW,0.00,0.0,WeatherDisplay:10.37,2013-03-02 10:09:00,
2013-03-02 02:12:00,57.8,13.2,30.22,East,88,0.0,0.0,17,0.00,CLR,FEW,0.00,0.0,WeatherDisplay:10.37,2013-03-02 10:12:00,
2013-03-02 02:14:00,57.6,13.0,30.22,ENE,59,0.0,0.0,17,0.00,CLR,FEW,0.00,0.0,WeatherDisplay:10.37,2013-03-02 10:14:00,
2013-03-02 02:16:00,58.0,13.4,30.21,NNE,33,0.0,0.0,17,0.00,CLR,FEW,0.00,0.0,WeatherDisplay:10.37,2013-03-02 10:16:00,
2013-03-02 02:19:00,57.8,13.2,30.21,East,86,0.0,0.0,17,0.00,CLR,FEW,0.00,0.0,WeatherDisplay:10.37,2013-03-02 10:19:00,
2013-03-02 02:20:00,57.6,14.3,30.21,East,86,0.0,0.0,18,0.00,CLR,FEW,0.00,0.0,WeatherDisplay:10.37,2013-03-02 10:20:00,
2013-03-02 02:21:00,57.3,14.1,30.21,East,88,0.0,0.0,18,0.00,CLR,FEW,0.00,0.0,WeatherDisplay:10.37,2013-03-02 10:21:00,
2013-03-02 02:24:00,56.5,14.7,30.21,East,94,1.7,6.5,19,0.00,CLR,FEW,0.00,0.0,WeatherDisplay:10.37,2013-03-02 10:24:00,
2013-03-02 02:25:00,56.5,14.7,30.21,East,101,3.1,3.5,19,0.00,CLR,FEW,0.00,0.0,WeatherDisplay:10.37,2013-03-02 10:25:00,
2013-03-02 02:27:00,56.6,13.5,30.21,ESE,103,1.0,3.9,18,0.00,CLR,FEW,0.00,0.0,WeatherDisplay:10.37,2013-03-02 10:27:00,
2013-03-02 02:29:00,57.3,12.8,30.21,East,94,0.0,0.0,17,0.00,CLR,FEW,0.00,0.0,WeatherDisplay:10.37,2013-03-02 10:29:00,
2013-03-02 02:31:00,57.8,13.2,30.21,ENE,74,0.0,0.0,17,0.00,CLR,FEW,0.00,0.0,WeatherDisplay:10.37,2013-03-02 10:31:00,
2013-03-02 02:32:00,58.0,13.4,30.21,ESE,103,0.6,3.5,17,0.00,CLR,FEW,0.00,0.0,WeatherDisplay:10.37,2013-03-02 10:32:00,
2013-03-02 02:33:00,58.1,13.4,30.21,East,90,0.1,3.9,17,0.00,CLR,FEW,0.00,0.0,WeatherDisplay:10.37,2013-03-02 10:33:00,
2013-03-02 02:35:00,58.3,13.6,30.21,East,98,0.0,3.5,17,0.00,CLR,FEW,0.00,0.0,WeatherDisplay:10.37,2013-03-02 10:35:00,
2013-03-02 02:36:00,58.3,13.6,30.21,East,98,1.7,8.1,17,0.00,CLR,FEW,0.00,0.0,WeatherDisplay:10.37,2013-03-02 10:36:00,
2013-03-02 02:38:00,58.1,13.4,30.21,East,96,0.1,6.9,17,0.00,CLR,FEW,0.00,0.0,WeatherDisplay:10.37,2013-03-02 10:38:00,
2013-03-02 02:41:00,57.8,13.2,30.21,ESE,103,6.1,9.2,17,0.00,CLR,FEW,0.00,0.0,WeatherDisplay:10.37,2013-03-02 10:41:00,
2013-03-02 02:43:00,58.0,13.4,30.21,East,88,0.0,2.3,17,0.00,CLR,FEW,0.00,0.0,WeatherDisplay:10.37,2013-03-02 10:43:00,
2013-03-02 02:45:00,57.8,13.2,30.21,NE,53,0.0,0.0,17,0.00,CLR,FEW,0.00,0.0,WeatherDisplay:10.37,2013-03-02 10:45:00,
2013-03-02 02:47:00,57.8,13.2,30.21,East,93,1.1,3.9,17,0.00,CLR,FEW,0.00,0.0,WeatherDisplay:10.37,2013-03-02 10:47:00,
2013-03-02 02:48:00,57.8,13.2,30.21,East,86,0.7,3.5,17,0.00,CLR,FEW,0.00,0.0,WeatherDisplay:10.37,2013-03-02 10:48:00,
2013-03-02 02:52:00,58.3,13.6,30.21,East,93,0.2,1.3,17,0.00,CLR,FEW,0.00,0.0,WeatherDisplay:10.37,2013-03-02 10:52:00,
2013-03-02 02:53:00,58.3,13.6,30.21,East,92,0.9,6.5,17,0.00,CLR,FEW,0.00,0.0,WeatherDisplay:10.37,2013-03-02 10:53:00,
2013-03-02 02:58:00,58.9,12.7,30.21,NE,49,0.3,9.2,16,0.00,CLR,FEW,0.00,0.0,WeatherDisplay:10.37,2013-03-02 10:58:00,
2013-03-02 02:59:00,58.9,14.1,30.21,ENE,69,0.0,0.0,17,0.00,CLR,FEW,0.00,0.0,WeatherDisplay:10.37,2013-03-02 10:59:00,
2013-03-02 03:03:00,58.1,13.4,30.20,East,89,5.1,10.4,17,0.00,CLR,FEW,0.00,0.0,WeatherDisplay:10.37,2013-03-02 11:03:00,
2013-03-02 03:04:00,58.4,12.3,30.20,ESE,102,5.4,10.4,16,0.00,CLR,FEW,0.00,0.0,WeatherDisplay:10.37,2013-03-02 11:04:00,
2013-03-02 03:08:00,59.3,13.0,30.20,East,95,3.8,6.5,16,0.00,CLR,FEW,0.00,0.0,WeatherDisplay:10.37,2013-03-02 11:08:00,
2013-03-02 03:09:00,59.3,11.6,30.20,East,98,5.8,9.2,15,0.00,CLR,FEW,0.00,0.0,WeatherDisplay:10.37,2013-03-02 11:09:00,
2013-03-02 03:10:00,59.5,11.7,30.20,East,96,4.1,9.2,15,0.00,CLR,FEW,0.00,0.0,WeatherDisplay:10.37,2013-03-02 11:10:00,
2013-03-02 03:11:00,59.6,11.8,30.20,East,84,3.0,9.2,15,0.00,CLR,FEW,0.00,0.0,WeatherDisplay:10.37,2013-03-02 11:11:00,
2013-03-02 03:13:00,59.6,11.8,30.20,East,101,1.5,6.9,15,0.00,CLR,FEW,0.00,0.0,WeatherDisplay:10.37,2013-03-02 11:13:00,
2013-03-02 03:14:00,59.6,11.8,30.20,ESE,111,0.1,3.5,15,0.00,CLR,FEW,0.00,0.0,WeatherDisplay:10.37,2013-03-02 11:14:00,
2013-03-02 03:15:00,59.6,11.8,30.20,East,96,1.0,9.1,15,0.00,CLR,FEW,0.00,0.0,WeatherDisplay:10.37,2013-03-02 11:15:00,
2013-03-02 03:17:00,59.8,12.0,30.20,East,96,0.3,6.9,15,0.00,CLR,FEW,0.00,0.0,WeatherDisplay:10.37,2013-03-02 11:17:00,
2013-03-02 03:18:00,59.8,12.0,30.20,ESE,104,0.1,1.3,15,0.00,CLR,FEW,0.00,0.0,WeatherDisplay:10.37,2013-03-02 11:18:00,
2013-03-02 03:19:00,59.8,12.0,30.20,ESE,107,1.1,5.2,15,0.00,CLR,FEW,0.00,0.0,WeatherDisplay:10.37,2013-03-02 11:19:00,
2013-03-02 03:21:00,59.8,12.0,30.20,ESE,103,3.5,9.2,15,0.00,CLR,FEW,0.00,0.0,WeatherDisplay:10.37,2013-03-02 11:21:00,
2013-03-02 03:22:00,59.8,12.0,30.20,East,100,1.1,6.9,15,0.00,CLR,FEW,0.00,0.0,WeatherDisplay:10.37,2013-03-02 11:22:00,
2013-03-02 03:23:00,59.8,12.0,30.20,East,94,0.9,5.8,15,0.00,CLR,FEW,0.00,0.0,WeatherDisplay:10.37,2013-03-02 11:23:00,
2013-03-02 03:24:00,59.6,11.8,30.20,ESE,104,0.2,3.5,15,0.00,CLR,FEW,0.00,0.0,WeatherDisplay:10.37,2013-03-02 11:24:00,
2013-03-02 03:27:00,59.8,12.0,30.20,East,101,0.7,10.4,15,0.00,CLR,FEW,0.00,0.0,WeatherDisplay:10.37,2013-03-02 11:27:00,
2013-03-02 03:28:00,59.8,12.0,30.20,ESE,116,0.2,6.9,15,0.00,CLR,FEW,0.00,0.0,WeatherDisplay:10.37,2013-03-02 11:28:00,
2013-03-02 03:30:00,59.6,11.8,30.20,ESE,107,0.4,0.0,15,0.00,CLR,FEW,0.00,0.0,WeatherDisplay:10.37,2013-03-02 11:30:00,
2013-03-02 03:32:00,59.3,13.0,30.20,ESE,105,0.2,1.3,16,0.00,CLR,FEW,0.00,0.0,WeatherDisplay:10.37,2013-03-02 11:32:00,
2013-03-02 03:34:00,59.2,13.0,30.20,East,97,0.1,2.3,16,0.00,CLR,FEW,0.00,0.0,WeatherDisplay:10.37,2013-03-02 11:34:00,
2013-03-02 03:35:00,59.3,11.6,30.20,ENE,67,1.1,3.5,15,0.00,CLR,FEW,0.00,0.0,WeatherDisplay:10.37,2013-03-02 11:35:00,
2013-03-02 03:37:00,59.3,13.0,30.20,ESE,105,2.2,8.1,16,0.00,CLR,FEW,0.00,0.0,WeatherDisplay:10.37,2013-03-02 11:37:00,
2013-03-02 03:39:00,59.3,13.0,30.20,SE,128,0.0,1.2,16,0.00,CLR,FEW,0.00,0.0,WeatherDisplay:10.37,2013-03-02 11:39:00,
2013-03-02 03:41:00,59.0,12.8,30.20,ESE,106,1.6,3.9,16,0.00,CLR,FEW,0.00,0.0,WeatherDisplay:10.37,2013-03-02 11:41:00,
2013-03-02 03:42:00,58.9,12.7,30.20,ESE,103,0.0,3.5,16,0.00,CLR,FEW,0.00,0.0,WeatherDisplay:10.37,2013-03-02 11:42:00,
2013-03-02 03:45:00,58.6,12.5,30.20,East,101,0.0,0.0,16,0.00,CLR,FEW,0.00,0.0,WeatherDisplay:10.37,2013-03-02 11:45:00,
2013-03-02 03:46:00,58.6,12.5,30.20,East,101,0.0,0.0,16,0.00,CLR,FEW,0.00,0.0,WeatherDisplay:10.37,2013-03-02 11:46:00,
2013-03-02 03:49:00,58.1,13.4,30.20,ENE,64,0.0,3.5,17,0.00,CLR,FEW,0.00,0.0,WeatherDisplay:10.37,2013-03-02 11:49:00,
2013-03-02 03:51:00,57.8,13.2,30.20,East,81,0.0,0.0,17,0.00,CLR,FEW,0.00,0.0,WeatherDisplay:10.37,2013-03-02 11:51:00,
2013-03-02 03:52:00,57.8,13.2,30.20,NE,49,0.2,1.3,17,0.00,CLR,FEW,0.00,0.0,WeatherDisplay:10.37,2013-03-02 11:52:00,
2013-03-02 03:54:00,58.0,12.0,30.20,ENE,63,0.0,0.0,16,0.00,CLR,FEW,0.00,0.0,WeatherDisplay:10.37,2013-03-02 11:54:00,
2013-03-02 03:55:00,58.1,12.1,30.20,East,97,0.0,0.0,16,0.00,CLR,FEW,0.00,0.0,WeatherDisplay:10.37,2013-03-02 11:55:00,
2013-03-02 03:57:00,58.4,12.3,30.20,East,89,1.3,7.8,16,0.00,CLR,FEW,0.00,0.0,WeatherDisplay:10.37,2013-03-02 11:57:00,
2013-03-02 03:58:00,58.4,12.3,30.20,ENE,77,0.2,8.1,16,0.00,CLR,FEW,0.00,0.0,WeatherDisplay:10.37,2013-03-02 11:58:00,
2013-03-02 04:00:00,58.3,13.6,30.20,ENE,69,0.0,0.0,17,0.00,CLR,FEW,0.00,0.0,WeatherDisplay:10.37,2013-03-02 12:00:00,
2013-03-02 04:02:00,58.0,13.4,30.20,East,85,0.0,0.0,17,0.00,CLR,FEW,0.00,0.0,WeatherDisplay:10.37,2013-03-02 12:02:00,
2013-03-02 04:05:00,58.0,13.4,30.20,NE,37,0.0,0.0,17,0.00,CLR,FEW,0.00,0.0,WeatherDisplay:10.37,2013-03-02 12:05:00,
2013-03-02 04:08:00,58.1,13.4,30.20,East,88,0.0,0.0,17,0.00,CLR,FEW,0.00,0.0,WeatherDisplay:10.37,2013-03-02 12:08:00,
2013-03-02 04:10:00,58.1,13.4,30.20,ENE,66,0.0,0.0,17,0.00,CLR,FEW,0.00,0.0,WeatherDisplay:10.37,2013-03-02 12:10:00,
2013-03-02 04:12:00,58.1,13.4,30.20,NNE,22,0.0,0.0,17,0.00,CLR,FEW,0.00,0.0,WeatherDisplay:10.37,2013-03-02 12:12:00,
2013-03-02 04:14:00,58.1,13.4,30.20,ENE,76,0.0,0.0,17,0.00,CLR,FEW,0.00,0.0,WeatherDisplay:10.37,2013-03-02 12:14:00,
2013-03-02 04:16:00,58.0,13.4,30.20,ENE,78,0.0,0.0,17,0.00,CLR,FEW,0.00,0.0,WeatherDisplay:10.37,2013-03-02 12:16:00,
2013-03-02 04:17:00,58.0,13.4,30.20,ENE,59,0.0,0.0,17,0.00,CLR,FEW,0.00,0.0,WeatherDisplay:10.37,2013-03-02 12:17:00,
2013-03-02 04:19:00,57.6,14.3,30.20,NE,52,0.0,0.0,18,0.00,CLR,FEW,0.00,0.0,WeatherDisplay:10.37,2013-03-02 12:19:00,
2013-03-02 04:21:00,57.5,13.0,30.20,East,98,0.0,0.0,17,0.00,CLR,FEW,0.00,0.0,WeatherDisplay:10.37,2013-03-02 12:21:00,
2013-03-02 04:22:00,57.5,13.0,30.20,ENE,59,0.0,0.0,17,0.00,CLR,FEW,0.00,0.0,WeatherDisplay:10.37,2013-03-02 12:22:00,
2013-03-02 04:25:00,58.0,13.4,30.20,ENE,76,0.0,0.0,17,0.00,CLR,FEW,0.00,0.0,WeatherDisplay:10.37,2013-03-02 12:25:00,
2013-03-02 04:27:00,58.3,13.6,30.20,ENE,65,0.0,0.0,17,0.00,CLR,FEW,0.00,0.0,WeatherDisplay:10.37,2013-03-02 12:27:00,
2013-03-02 04:28:00,58.4,13.7,30.20,ENE,74,0.0,0.0,17,0.00,CLR,FEW,0.00,0.0,WeatherDisplay:10.37,2013-03-02 12:28:00,
2013-03-02 04:32:00,58.6,13.9,30.20,ENE,69,0.0,0.0,17,0.00,CLR,FEW,0.00,0.0,WeatherDisplay:10.37,2013-03-02 12:32:00,
2013-03-02 04:33:00,58.6,12.5,30.20,ENE,59,0.0,0.0,16,0.00,CLR,FEW,0.00,0.0,WeatherDisplay:10.37,2013-03-02 12:33:00,
2013-03-02 04:34:00,58.6,12.5,30.20,ENE,59,0.0,0.0,16,0.00,CLR,FEW,0.00,0.0,WeatherDisplay:10.37,2013-03-02 12:34:00,
2013-03-02 04:37:00,58.4,13.7,30.20,ENE,71,0.0,0.0,17,0.00,CLR,FEW,0.00,0.0,WeatherDisplay:10.37,2013-03-02 12:37:00,
2013-03-02 04:38:00,58.4,13.7,30.20,ENE,71,0.0,0.0,17,0.00,CLR,FEW,0.00,0.0,WeatherDisplay:10.37,2013-03-02 12:38:00,
2013-03-02 04:40:00,58.6,12.5,30.20,East,86,0.0,0.0,16,0.00,CLR,FEW,0.00,0.0,WeatherDisplay:10.37,2013-03-02 12:40:00,
2013-03-02 04:43:00,58.9,12.7,30.20,East,79,0.0,0.0,16,0.00,CLR,FEW,0.00,0.0,WeatherDisplay:10.37,2013-03-02 12:43:00,
2013-03-02 04:44:00,58.9,12.7,30.20,NE,55,0.0,0.0,16,0.00,CLR,FEW,0.00,0.0,WeatherDisplay:10.37,2013-03-02 12:44:00,
2013-03-02 04:46:00,58.7,12.6,30.20,ENE,59,0.0,0.0,16,0.00,CLR,FEW,0.00,0.0,WeatherDisplay:10.37,2013-03-02 12:46:00,
2013-03-02 04:48:00,58.6,12.5,30.20,ENE,60,0.0,0.0,16,0.00,CLR,FEW,0.00,0.0,WeatherDisplay:10.37,2013-03-02 12:48:00,
2013-03-02 04:49:00,58.6,12.5,30.20,NE,56,0.0,0.0,16,0.00,CLR,FEW,0.00,0.0,WeatherDisplay:10.37,2013-03-02 12:49:00,
2013-03-02 04:52:00,58.4,13.7,30.20,NE,39,0.0,0.0,17,0.00,CLR,FEW,0.00,0.0,WeatherDisplay:10.37,2013-03-02 12:52:00,
2013-03-02 04:53:00,58.4,13.7,30.20,NE,39,0.0,0.0,17,0.00,CLR,FEW,0.00,0.0,WeatherDisplay:10.37,2013-03-02 12:53:00,
2013-03-02 04:54:00,58.3,13.6,30.20,ENE,76,0.0,0.0,17,0.00,CLR,FEW,0.00,0.0,WeatherDisplay:10.37,2013-03-02 12:54:00,
2013-03-02 04:57:00,58.1,13.4,30.20,East,84,0.0,0.0,17,0.00,CLR,FEW,0.00,0.0,WeatherDisplay:10.37,2013-03-02 12:57:00,
2013-03-02 04:58:00,58.1,13.4,30.20,ESE,104,0.0,0.0,17,0.00,CLR,FEW,0.00,0.0,WeatherDisplay:10.37,2013-03-02 12:58:00,
2013-03-02 05:00:00,58.0,13.4,30.20,ESE,102,0.0,0.0,17,0.00,CLR,FEW,0.00,0.0,WeatherDisplay:10.37,2013-03-02 13:00:00,
2013-03-02 05:03:00,57.8,13.2,30.21,East,101,0.0,0.0,17,0.00,CLR,FEW,0.00,0.0,WeatherDisplay:10.37,2013-03-02 13:03:00,
2013-03-02 05:04:00,57.8,13.2,30.21,East,101,0.0,0.0,17,0.00,CLR,FEW,0.00,0.0,WeatherDisplay:10.37,2013-03-02 13:04:00,
2013-03-02 05:05:00,57.8,13.2,30.21,East,101,0.0,0.0,17,0.00,CLR,FEW,0.00,0.0,WeatherDisplay:10.37,2013-03-02 13:05:00,
2013-03-02 05:08:00,57.6,14.3,30.21,East,94,0.0,0.0,18,0.00,CLR,FEW,0.00,0.0,WeatherDisplay:10.37,2013-03-02 13:08:00,
2013-03-02 05:09:00,57.6,14.3,30.21,East,94,0.0,0.0,18,0.00,CLR,FEW,0.00,0.0,WeatherDisplay:10.37,2013-03-02 13:09:00,
2013-03-02 05:10:00,57.5,14.3,30.21,East,94,0.0,0.0,18,0.00,CLR,FEW,0.00,0.0,WeatherDisplay:10.37,2013-03-02 13:10:00,
2013-03-02 05:11:00,57.5,14.3,30.21,NNE,30,0.0,0.0,18,0.00,CLR,FEW,0.00,0.0,WeatherDisplay:10.37,2013-03-02 13:11:00,
2013-03-02 05:13:00,57.3,14.1,30.21,ENE,78,0.0,0.0,18,0.00,CLR,FEW,0.00,0.0,WeatherDisplay:10.37,2013-03-02 13:13:00,
2013-03-02 05:16:00,57.5,14.3,30.21,NE,51,0.0,0.0,18,0.00,CLR,FEW,0.00,0.0,WeatherDisplay:10.37,2013-03-02 13:16:00,
2013-03-02 05:17:00,57.5,14.3,30.21,East,86,0.0,0.0,18,0.00,CLR,FEW,0.00,0.0,WeatherDisplay:10.37,2013-03-02 13:17:00,
2013-03-02 05:19:00,57.6,14.3,30.21,East,80,0.0,0.0,18,0.00,CLR,FEW,0.00,0.0,WeatherDisplay:10.37,2013-03-02 13:19:00,
2013-03-02 05:21:00,57.8,13.2,30.21,ENE,77,0.0,0.0,17,0.00,CLR,FEW,0.00,0.0,WeatherDisplay:10.37,2013-03-02 13:21:00,
2013-03-02 05:22:00,57.8,13.2,30.21,ENE,77,0.0,0.0,17,0.00,CLR,FEW,0.00,0.0,WeatherDisplay:10.37,2013-03-02 13:22:00,
2013-03-02 05:24:00,58.0,13.4,30.21,ENE,76,0.0,0.0,17,0.00,CLR,FEW,0.00,0.0,WeatherDisplay:10.37,2013-03-02 13:24:00,
2013-03-02 05:26:00,57.8,14.5,30.21,NE,46,0.0,0.0,18,0.00,CLR,FEW,0.00,0.0,WeatherDisplay:10.37,2013-03-02 13:26:00,
2013-03-02 05:27:00,57.8,14.5,30.21,NE,40,0.0,0.0,18,0.00,CLR,FEW,0.00,0.0,WeatherDisplay:10.37,2013-03-02 13:27:00,
2013-03-02 05:29:00,57.8,14.5,30.21,ENE,59,0.0,0.0,18,0.00,CLR,FEW,0.00,0.0,WeatherDisplay:10.37,2013-03-02 13:29:00,
2013-03-02 05:30:00,57.8,13.2,30.21,NE,53,0.1,1.2,17,0.00,CLR,FEW,0.00,0.0,WeatherDisplay:10.37,2013-03-02 13:30:00,
2013-03-02 05:32:00,58.0,14.7,30.21,ENE,61,0.0,0.0,18,0.00,CLR,FEW,0.00,0.0,WeatherDisplay:10.37,2013-03-02 13:32:00,
2013-03-02 05:33:00,58.0,14.7,30.21,ENE,59,0.0,0.0,18,0.00,CLR,FEW,0.00,0.0,WeatherDisplay:10.37,2013-03-02 13:33:00,
2013-03-02 05:36:00,58.0,13.4,30.21,ENE,57,0.0,0.0,17,0.00,CLR,FEW,0.00,0.0,WeatherDisplay:10.37,2013-03-02 13:36:00,
2013-03-02 05:37:00,58.0,13.4,30.21,ENE,78,0.9,3.5,17,0.00,CLR,FEW,0.00,0.0,WeatherDisplay:10.37,2013-03-02 13:37:00,
2013-03-02 05:38:00,58.3,13.6,30.21,ENE,67,0.2,3.5,17,0.00,CLR,FEW,0.00,0.0,WeatherDisplay:10.37,2013-03-02 13:38:00,
2013-03-02 05:40:00,58.4,13.7,30.21,East,82,0.3,2.3,17,0.00,CLR,FEW,0.00,0.0,WeatherDisplay:10.37,2013-03-02 13:40:00,
2013-03-02 05:42:00,58.7,13.9,30.21,East,82,0.0,0.0,17,0.00,CLR,FEW,0.00,0.0,WeatherDisplay:10.37,2013-03-02 13:42:00,
2013-03-02 05:44:00,58.9,14.1,30.21,East,86,0.0,0.0,17,0.00,CLR,FEW,0.00,0.0,WeatherDisplay:10.37,2013-03-02 13:44:00,
2013-03-02 05:46:00,58.9,12.7,30.21,East,91,0.0,0.0,16,0.00,CLR,FEW,0.00,0.0,WeatherDisplay:10.37,2013-03-02 13:46:00,
2013-03-02 05:47:00,58.9,14.1,30.21,East,92,0.0,0.0,17,0.00,CLR,FEW,0.00,0.0,WeatherDisplay:10.37,2013-03-02 13:47:00,
2013-03-02 05:49:00,58.9,14.1,30.21,NE,55,0.0,0.0,17,0.00,CLR,FEW,0.00,0.0,WeatherDisplay:10.37,2013-03-02 13:49:00,
2013-03-02 05:50:00,58.7,13.9,30.21,NE,50,0.0,0.0,17,0.00,CLR,FEW,0.00,0.0,WeatherDisplay:10.37,2013-03-02 13:50:00,
2013-03-02 05:51:00,58.7,13.9,30.21,NNE,20,0.0,0.0,17,0.00,CLR,FEW,0.00,0.0,WeatherDisplay:10.37,2013-03-02 13:51:00,
2013-03-02 05:52:00,58.6,13.9,30.21,NNE,22,0.0,0.0,17,0.00,CLR,FEW,0.00,0.0,WeatherDisplay:10.37,2013-03-02 13:52:00,
2013-03-02 05:54:00,58.6,13.9,30.21,NE,38,0.0,0.0,17,0.00,CLR,FEW,0.00,0.0,WeatherDisplay:10.37,2013-03-02 13:54:00,
2013-03-02 05:56:00,58.6,12.5,30.21,ENE,71,0.0,0.0,16,0.00,CLR,FEW,0.00,0.0,WeatherDisplay:10.37,2013-03-02 13:56:00,
2013-03-02 05:57:00,58.6,12.5,30.21,ENE,65,0.0,0.0,16,0.00,CLR,FEW,0.00,0.0,WeatherDisplay:10.37,2013-03-02 13:57:00,
2013-03-02 05:59:00,58.7,12.6,30.21,ENE,61,0.0,0.0,16,0.00,CLR,FEW,0.00,0.0,WeatherDisplay:10.37,2013-03-02 13:59:00,
2013-03-02 06:02:00,58.6,13.9,30.21,ENE,61,0.0,0.0,17,0.00,OVC,FEW,0.00,0.0,WeatherDisplay:10.37,2013-03-02 14:02:00,
2013-03-02 06:03:00,58.6,13.9,30.21,ENE,63,0.0,0.0,17,0.00,OVC,FEW,0.00,0.0,WeatherDisplay:10.37,2013-03-02 14:03:00,
2013-03-02 06:04:00,58.4,13.7,30.21,ENE,69,0.0,0.0,17,0.00,OVC,FEW,0.00,0.0,WeatherDisplay:10.37,2013-03-02 14:04:00,
2013-03-02 06:05:00,58.4,13.7,30.21,ENE,69,0.0,0.0,17,0.00,OVC,FEW,0.00,0.0,WeatherDisplay:10.37,2013-03-02 14:05:00,
2013-03-02 06:08:00,58.4,13.7,30.21,East,94,0.0,0.0,17,0.00,OVC,FEW,0.00,0.0,WeatherDisplay:10.37,2013-03-02 14:08:00,
2013-03-02 06:09:00,58.6,13.9,30.21,East,88,0.0,0.0,17,0.00,OVC,FEW,0.00,0.0,WeatherDisplay:10.37,2013-03-02 14:09:00,
2013-03-02 06:10:00,58.6,13.9,30.21,East,88,0.0,0.0,17,0.00,OVC,FEW,0.00,0.0,WeatherDisplay:10.37,2013-03-02 14:10:00,
2013-03-02 06:11:00,58.4,13.7,30.21,East,88,0.0,0.0,17,0.00,OVC,FEW,0.00,0.0,WeatherDisplay:10.37,2013-03-02 14:11:00,
2013-03-02 06:13:00,58.1,14.8,30.21,NE,48,0.0,0.0,18,0.00,OVC,FEW,0.00,0.0,WeatherDisplay:10.37,2013-03-02 14:13:00,
2013-03-02 06:15:00,58.0,14.7,30.21,ENE,57,0.0,0.0,18,0.00,OVC,FEW,0.00,0.0,WeatherDisplay:10.37,2013-03-02 14:15:00,
2013-03-02 06:16:00,57.8,14.5,30.21,NE,55,0.0,0.0,18,0.00,OVC,FEW,0.00,5.3,WeatherDisplay:10.37,2013-03-02 14:16:00,
2013-03-02 06:18:00,57.6,14.3,30.21,NNE,24,0.0,0.0,18,0.00,OVC,FEW,0.00,5.3,WeatherDisplay:10.37,2013-03-02 14:18:00,
2013-03-02 06:21:00,57.6,14.3,30.21,NNE,27,0.0,0.0,18,0.00,OVC,FEW,0.00,7.3,WeatherDisplay:10.37,2013-03-02 14:21:00,
2013-03-02 06:22:00,57.6,14.3,30.21,NNE,27,0.0,0.0,18,0.00,OVC,FEW,0.00,7.3,WeatherDisplay:10.37,2013-03-02 14:22:00,
2013-03-02 06:24:00,57.6,14.3,30.21,NNE,27,0.0,0.0,18,0.00,CLR,FEW,0.00,9.4,WeatherDisplay:10.37,2013-03-02 14:24:00,
2013-03-02 06:26:00,57.6,14.3,30.21,NNE,28,0.0,0.0,18,0.00,CLR,FEW,0.00,9.4,WeatherDisplay:10.37,2013-03-02 14:26:00,
2013-03-02 06:27:00,57.8,13.2,30.21,NNE,28,0.0,0.0,17,0.00,CLR,FEW,0.00,11.6,WeatherDisplay:10.37,2013-03-02 14:27:00,
2013-03-02 06:29:00,58.0,13.4,30.21,NNE,28,0.0,0.0,17,0.00,SCT,FEW,0.00,11.6,WeatherDisplay:10.37,2013-03-02 14:29:00,
2013-03-02 06:32:00,58.1,14.8,30.21,NNE,28,0.0,0.0,18,0.00,SCT,FEW,0.00,12.6,WeatherDisplay:10.37,2013-03-02 14:32:00,
2013-03-02 06:33:00,58.0,14.7,30.21,NNE,29,0.0,0.0,18,0.00,SCT,FEW,0.00,14.7,WeatherDisplay:10.37,2013-03-02 14:33:00,
2013-03-02 06:34:00,57.8,14.5,30.21,NE,44,0.0,0.0,18,0.00,BKN,FEW,0.00,14.7,WeatherDisplay:10.37,2013-03-02 14:34:00,
2013-03-02 06:37:00,57.5,15.5,30.21,NNE,22,0.0,0.0,19,0.00,BKN,FEW,0.00,16.8,WeatherDisplay:10.37,2013-03-02 14:37:00,
2013-03-02 06:38:00,57.5,15.5,30.21,NNE,22,0.0,0.0,19,0.00,BKN,FEW,0.00,16.8,WeatherDisplay:10.37,2013-03-02 14:38:00,
2013-03-02 06:39:00,57.5,15.5,30.21,ENE,72,0.0,0.0,19,0.00,BKN,FEW,0.00,16.8,WeatherDisplay:10.37,2013-03-02 14:39:00,
2013-03-02 06:42:00,58.0,13.4,30.21,East,85,0.0,0.0,17,0.00,BKN,FEW,0.00,18.9,WeatherDisplay:10.37,2013-03-02 14:42:00,
2013-03-02 06:43:00,58.0,14.7,30.21,East,85,0.0,0.0,18,0.00,BKN,FEW,0.00,19.9,WeatherDisplay:10.37,2013-03-02 14:43:00,
2013-03-02 06:44:00,58.1,14.8,30.21,East,85,0.0,0.0,18,0.00,BKN,FEW,0.00,19.9,WeatherDisplay:10.37,2013-03-02 14:44:00,
2013-03-02 06:45:00,58.1,14.8,30.21,East,85,0.0,0.0,18,0.00,BKN,FEW,0.00,19.9,WeatherDisplay:10.37,2013-03-02 14:45:00,
2013-03-02 06:49:00,58.4,15.0,30.21,ENE,75,0.0,0.0,18,0.00,BKN,FEW,0.00,22.1,WeatherDisplay:10.37,2013-03-02 14:49:00,
2013-03-02 06:50:00,58.4,15.0,30.21,East,92,0.0,0.0,18,0.00,BKN,FEW,0.00,22.1,WeatherDisplay:10.37,2013-03-02 14:50:00,
2013-03-02 06:54:00,58.7,16.5,30.21,East,92,0.0,0.0,19,0.00,BKN,FEW,0.00,26.3,WeatherDisplay:10.37,2013-03-02 14:54:00,
2013-03-02 06:55:00,58.7,16.5,30.21,East,92,0.0,0.0,19,0.00,BKN,FEW,0.00,26.3,WeatherDisplay:10.37,2013-03-02 14:55:00,
2013-03-02 06:56:00,58.7,15.2,30.21,East,92,0.0,0.0,18,0.00,BKN,FEW,0.00,26.3,WeatherDisplay:10.37,2013-03-02 14:56:00,
2013-03-02 07:00:00,59.0,15.5,30.21,East,94,0.0,0.0,18,0.00,BKN,FEW,0.00,26.3,WeatherDisplay:10.37,2013-03-02 15:00:00,
2013-03-02 07:01:00,59.3,15.7,30.22,East,94,0.0,0.0,18,0.00,BKN,FEW,0.00,27.3,WeatherDisplay:10.37,2013-03-02 15:01:00,
2013-03-02 07:05:00,59.9,14.9,30.22,East,97,3.1,9.2,17,0.00,BKN,FEW,0.00,27.3,WeatherDisplay:10.37,2013-03-02 15:05:00,
2013-03-02 07:06:00,60.1,15.1,30.22,ESE,103,5.0,9.2,17,0.00,BKN,FEW,0.00,27.3,WeatherDisplay:10.37,2013-03-02 15:06:00,
2013-03-02 07:10:00,60.2,15.2,30.22,East,82,0.3,2.3,17,0.00,BKN,FEW,0.00,29.4,WeatherDisplay:10.37,2013-03-02 15:10:00,
2013-03-02 07:11:00,60.4,15.3,30.22,East,92,0.0,0.0,17,0.00,BKN,FEW,0.00,29.4,WeatherDisplay:10.37,2013-03-02 15:11:00,
2013-03-02 07:16:00,60.9,15.7,30.22,ENE,63,0.0,1.2,17,0.00,BKN,FEW,0.00,31.5,WeatherDisplay:10.37,2013-03-02 15:16:00,
2013-03-02 07:17:00,60.9,17.0,30.22,ENE,71,0.0,0.0,18,0.00,BKN,FEW,0.00,33.6,WeatherDisplay:10.37,2013-03-02 15:17:00,
2013-03-02 07:21:00,61.0,15.8,30.22,ENE,78,0.0,1.2,17,0.00,BKN,FEW,0.00,38.9,WeatherDisplay:10.37,2013-03-02 15:21:00,
2013-03-02 07:22:00,61.0,15.8,30.22,ENE,69,0.0,0.0,17,0.00,BKN,FEW,0.00,68.3,WeatherDisplay:10.37,2013-03-02 15:22:00,
2013-03-02 07:24:00,61.3,16.1,30.22,East,82,2.3,5.8,17,0.00,BKN,FEW,0.00,162.8,WeatherDisplay:10.37,2013-03-02 15:24:00,
2013-03-02 07:27:00,62.0,18.0,30.22,East,82,0.0,0.0,18,0.00,CLR,FEW,0.00,171.2,WeatherDisplay:10.37,2013-03-02 15:27:00,
2013-03-02 07:28:00,62.1,18.0,30.22,East,82,0.0,0.0,18,0.00,CLR,FEW,0.00,177.4,WeatherDisplay:10.37,2013-03-02 15:28:00,
2013-03-02 07:29:00,62.3,18.2,30.22,East,82,0.0,0.0,18,0.00,CLR,FEW,0.00,179.6,WeatherDisplay:10.37,2013-03-02 15:29:00,
2013-03-02 07:32:00,62.7,17.2,30.22,NNE,21,0.0,0.0,17,0.00,CLR,FEW,0.00,192.2,WeatherDisplay:10.37,2013-03-02 15:32:00,
2013-03-02 07:33:00,62.9,17.4,30.22,NNE,21,0.0,0.0,17,0.00,CLR,FEW,0.00,192.2,WeatherDisplay:10.37,2013-03-02 15:33:00,
2013-03-02 07:34:00,63.1,17.5,30.22,NNE,21,0.0,0.0,17,0.00,CLR,FEW,0.00,194.3,WeatherDisplay:10.37,2013-03-02 15:34:00,
2013-03-02 07:37:00,63.5,16.4,30.22,NNE,21,0.2,0.0,16,0.00,CLR,FEW,0.00,206.8,WeatherDisplay:10.37,2013-03-02 15:37:00,
2013-03-02 07:38:00,63.7,18.0,30.22,NNE,21,0.0,1.2,17,0.00,CLR,FEW,0.00,210.0,WeatherDisplay:10.37,2013-03-02 15:38:00,
2013-03-02 07:39:00,63.7,18.0,30.22,NNE,21,0.0,0.0,17,0.00,CLR,FEW,0.00,210.0,WeatherDisplay:10.37,2013-03-02 15:39:00,
2013-03-02 07:40:00,63.9,19.5,30.22,NNE,21,0.0,0.0,18,0.00,CLR,FEW,0.00,214.2,WeatherDisplay:10.37,2013-03-02 15:40:00,
2013-03-02 07:43:00,64.3,19.8,30.22,NNE,22,0.0,0.0,18,0.00,CLR,FEW,0.00,228.9,WeatherDisplay:10.37,2013-03-02 15:43:00,
2013-03-02 07:44:00,64.3,19.8,30.22,NNE,21,0.0,0.0,18,0.00,CLR,FEW,0.00,232.1,WeatherDisplay:10.37,2013-03-02 15:44:00,
2013-03-02 07:45:00,64.5,18.7,30.22,NNE,22,0.0,0.0,17,0.00,CLR,FEW,0.00,232.1,WeatherDisplay:10.37,2013-03-02 15:45:00,
2013-03-02 07:46:00,64.7,18.8,30.22,NNE,21,0.0,0.0,17,0.00,CLR,FEW,0.00,238.3,WeatherDisplay:10.37,2013-03-02 15:46:00,
2013-03-02 07:49:00,65.2,17.8,30.22,East,93,0.0,0.0,16,0.00,CLR,FEW,0.00,250.9,WeatherDisplay:10.37,2013-03-02 15:49:00,
2013-03-02 07:50:00,65.2,16.3,30.22,East,93,0.1,1.2,15,0.00,CLR,FEW,0.00,253.1,WeatherDisplay:10.37,2013-03-02 15:50:00,
2013-03-02 07:52:00,65.5,18.1,30.22,East,93,0.0,0.0,16,0.00,CLR,FEW,0.00,258.3,WeatherDisplay:10.37,2013-03-02 15:52:00,
2013-03-02 07:55:00,66.1,17.0,30.22,East,88,0.0,0.0,15,0.00,CLR,FEW,0.00,270.9,WeatherDisplay:10.37,2013-03-02 15:55:00,
2013-03-02 07:56:00,66.3,17.2,30.22,East,89,0.0,0.0,15,0.00,CLR,FEW,0.00,270.9,WeatherDisplay:10.37,2013-03-02 15:56:00,
2013-03-02 07:57:00,66.4,18.8,30.22,East,89,0.0,0.0,16,0.00,CLR,FEW,0.00,278.3,WeatherDisplay:10.37,2013-03-02 15:57:00,
2013-03-02 08:00:00,67.3,18.0,30.21,East,89,0.0,0.0,15,0.00,CLR,FEW,0.00,289.8,WeatherDisplay:10.37,2013-03-02 16:00:00,
2013-03-02 08:01:00,67.3,18.0,30.21,East,89,0.0,0.0,15,0.00,CLR,FEW,0.00,289.8,WeatherDisplay:10.37,2013-03-02 16:01:00,
2013-03-02 08:02:00,67.4,18.1,30.21,East,89,0.0,0.0,15,0.00,CLR,FEW,0.00,292.9,WeatherDisplay:10.37,2013-03-02 16:02:00,
2013-03-02 08:05:00,68.3,18.8,30.21,East,89,0.0,0.0,15,0.00,CLR,FEW,0.00,304.5,WeatherDisplay:10.37,2013-03-02 16:05:00,
2013-03-02 08:07:00,68.6,17.4,30.21,East,89,0.0,0.0,14,0.00,CLR,FEW,0.00,311.9,WeatherDisplay:10.37,2013-03-02 16:07:00,
2013-03-02 08:08:00,68.9,19.3,30.21,East,89,0.0,0.0,15,0.00,CLR,FEW,0.00,313.9,WeatherDisplay:10.37,2013-03-02 16:08:00,
2013-03-02 08:11:00,69.6,18.2,30.21,East,89,0.0,0.0,14,0.00,CLR,FEW,0.00,326.6,WeatherDisplay:10.37,2013-03-02 16:11:00,
2013-03-02 08:12:00,69.9,18.5,30.21,East,89,0.0,0.0,14,0.00,CLR,FEW,0.00,330.8,WeatherDisplay:10.37,2013-03-02 16:12:00,
2013-03-02 08:13:00,70.1,18.6,30.21,East,89,0.0,0.0,14,0.00,CLR,FEW,0.00,330.8,WeatherDisplay:10.37,2013-03-02 16:13:00,
2013-03-02 08:17:00,70.9,19.3,30.22,East,89,0.0,0.0,14,0.00,CLR,FEW,0.00,348.6,WeatherDisplay:10.37,2013-03-02 16:17:00,
2013-03-02 08:18:00,71.3,19.6,30.22,East,89,0.0,0.0,14,0.00,CLR,FEW,0.00,350.7,WeatherDisplay:10.37,2013-03-02 16:18:00,
2013-03-02 08:22:00,72.0,20.1,30.22,East,89,0.0,0.0,14,0.00,CLR,FEW,0.00,365.4,WeatherDisplay:10.37,2013-03-02 16:22:00,
2013-03-02 08:24:00,72.1,16.6,30.22,East,89,0.0,0.0,12,0.00,CLR,FEW,0.00,370.6,WeatherDisplay:10.37,2013-03-02 16:24:00,
2013-03-02 08:27:00,72.3,20.4,30.22,East,89,0.0,0.0,14,0.00,CLR,FEW,0.00,384.3,WeatherDisplay:10.37,2013-03-02 16:27:00,
2013-03-02 08:29:00,72.5,18.8,30.22,East,89,0.0,0.0,13,0.00,CLR,FEW,0.00,391.6,WeatherDisplay:10.37,2013-03-02 16:29:00,
2013-03-02 08:32:00,73.0,19.2,30.22,East,89,0.0,0.0,13,0.00,CLR,FEW,0.00,404.3,WeatherDisplay:10.37,2013-03-02 16:32:00,
2013-03-02 08:33:00,73.0,17.3,30.22,East,89,0.0,0.0,12,0.00,CLR,FEW,0.00,404.3,WeatherDisplay:10.37,2013-03-02 16:33:00,
2013-03-02 08:34:00,73.0,17.3,30.22,East,89,0.0,0.0,12,0.00,CLR,FEW,0.00,409.5,WeatherDisplay:10.37,2013-03-02 16:34:00,
2013-03-02 08:37:00,73.5,19.6,30.22,East,89,0.0,0.0,13,0.00,CLR,FEW,0.00,423.1,WeatherDisplay:10.37,2013-03-02 16:37:00,
2013-03-02 08:38:00,73.5,19.6,30.22,East,89,0.0,0.0,13,0.00,CLR,FEW,0.00,423.1,WeatherDisplay:10.37,2013-03-02 16:38:00,
2013-03-02 08:39:00,73.7,19.8,30.22,East,89,0.0,0.0,13,0.00,CLR,FEW,0.00,424.2,WeatherDisplay:10.37,2013-03-02 16:39:00,
2013-03-02 08:42:00,74.2,18.3,30.22,East,89,0.0,0.0,12,0.00,CLR,FEW,0.00,437.9,WeatherDisplay:10.37,2013-03-02 16:42:00,
2013-03-02 08:43:00,74.2,18.3,30.22,East,89,0.0,0.0,12,0.00,CLR,FEW,0.00,437.9,WeatherDisplay:10.37,2013-03-02 16:43:00,
2013-03-02 08:44:00,74.4,18.4,30.22,East,89,0.0,0.0,12,0.00,CLR,FEW,0.00,443.1,WeatherDisplay:10.37,2013-03-02 16:44:00,
2013-03-02 08:45:00,74.4,18.4,30.21,East,89,0.0,0.0,12,0.00,CLR,FEW,0.00,445.2,WeatherDisplay:10.37,2013-03-02 16:45:00,
2013-03-02 08:47:00,74.2,18.3,30.21,East,89,0.0,0.0,12,0.00,CLR,FEW,0.00,453.6,WeatherDisplay:10.37,2013-03-02 16:47:00,
2013-03-02 08:49:00,74.2,20.1,30.21,NNE,23,0.0,0.0,13,0.00,CLR,FEW,0.00,457.8,WeatherDisplay:10.37,2013-03-02 16:49:00,
2013-03-02 08:51:00,74.2,18.3,30.21,NNW,342,0.1,2.3,12,0.00,CLR,FEW,0.00,463.1,WeatherDisplay:10.37,2013-03-02 16:51:00,
2013-03-02 08:53:00,74.2,18.3,30.21,NNW,329,0.0,0.0,12,0.00,CLR,FEW,0.00,472.5,WeatherDisplay:10.37,2013-03-02 16:53:00,
2013-03-02 08:54:00,74.2,20.1,30.21,NNW,335,0.2,0.0,13,0.00,CLR,FEW,0.00,474.6,WeatherDisplay:10.37,2013-03-02 16:54:00,
2013-03-02 08:58:00,74.0,20.0,30.21,WNW,298,0.0,0.0,13,0.00,CLR,FEW,0.00,487.2,WeatherDisplay:10.37,2013-03-02 16:58:00,
2013-03-02 08:59:00,73.9,18.0,30.21,WNW,299,0.0,0.0,12,0.00,CLR,FEW,0.00,491.4,WeatherDisplay:10.37,2013-03-02 16:59:00,
2013-03-02 09:03:00,74.0,20.0,30.21,WNW,299,0.0,0.0,13,0.00,CLR,FEW,0.00,504.0,WeatherDisplay:10.37,2013-03-02 17:03:00,
2013-03-02 09:04:00,74.0,20.0,30.21,WNW,299,0.0,0.0,13,0.00,CLR,FEW,0.00,506.1,WeatherDisplay:10.37,2013-03-02 17:04:00,
2013-03-02 09:05:00,74.0,21.7,30.21,WNW,299,0.0,0.0,14,0.00,CLR,FEW,0.00,511.4,WeatherDisplay:10.37,2013-03-02 17:05:00,
2013-03-02 09:09:00,74.2,18.3,30.21,WNW,298,0.0,0.0,12,0.00,CLR,FEW,0.00,521.9,WeatherDisplay:10.37,2013-03-02 17:09:00,
2013-03-02 09:11:00,74.0,23.4,30.21,South,173,0.5,1.3,15,0.00,CLR,FEW,0.00,528.1,WeatherDisplay:10.37,2013-03-02 17:11:00,
2013-03-02 09:14:00,72.8,26.8,30.21,West,265,2.2,6.9,18,0.00,CLR,FEW,0.00,540.8,WeatherDisplay:10.37,2013-03-02 17:14:00,
2013-03-02 09:16:00,72.5,26.5,30.21,West,267,0.0,1.2,18,0.00,CLR,FEW,0.00,542.9,WeatherDisplay:10.37,2013-03-02 17:16:00,
2013-03-02 09:19:00,72.1,26.2,30.21,West,267,0.0,0.0,18,0.00,CLR,FEW,0.00,553.4,WeatherDisplay:10.37,2013-03-02 17:19:00,
2013-03-02 09:20:00,72.1,26.2,30.21,West,267,0.0,0.0,18,0.00,CLR,FEW,0.00,548.1,WeatherDisplay:10.37,2013-03-02 17:20:00,
2013-03-02 09:21:00,72.0,26.1,30.21,West,266,0.1,1.2,18,0.00,CLR,FEW,0.00,557.5,WeatherDisplay:10.37,2013-03-02 17:21:00,
2013-03-02 09:24:00,71.3,26.9,30.21,West,265,0.0,0.0,19,0.00,CLR,FEW,0.00,568.0,WeatherDisplay:10.37,2013-03-02 17:24:00,
2013-03-02 09:25:00,71.1,26.7,30.21,West,261,0.0,0.0,19,0.00,CLR,FEW,0.00,568.0,WeatherDisplay:10.37,2013-03-02 17:25:00,
2013-03-02 09:27:00,70.8,27.7,30.21,West,261,0.0,0.0,20,0.00,CLR,FEW,0.00,579.6,WeatherDisplay:10.37,2013-03-02 17:27:00,
2013-03-02 09:30:00,70.8,26.5,30.21,West,261,0.0,0.0,19,0.00,CLR,FEW,0.00,582.8,WeatherDisplay:10.37,2013-03-02 17:30:00,
2013-03-02 09:33:00,70.6,25.0,30.21,SW,217,0.8,6.5,18,0.00,CLR,FEW,0.00,596.4,WeatherDisplay:10.37,2013-03-02 17:33:00,
2013-03-02 09:35:00,70.3,24.8,30.21,SSW,213,0.1,5.8,18,0.00,CLR,FEW,0.00,596.4,WeatherDisplay:10.37,2013-03-02 17:35:00,
2013-03-02 09:36:00,70.1,25.9,30.21,SSW,196,0.0,0.0,19,0.00,CLR,FEW,0.00,599.5,WeatherDisplay:10.37,2013-03-02 17:36:00,
2013-03-02 09:39:00,70.2,26.0,30.21,SW,216,0.0,0.0,19,0.00,CLR,FEW,0.00,613.2,WeatherDisplay:10.37,2013-03-02 17:39:00,
2013-03-02 09:40:00,70.3,24.8,30.21,SSW,196,0.0,0.0,18,0.00,CLR,FEW,0.00,613.2,WeatherDisplay:10.37,2013-03-02 17:40:00,
2013-03-02 09:41:00,70.3,24.8,30.21,SSW,196,0.2,1.2,18,0.00,CLR,FEW,0.00,616.4,WeatherDisplay:10.37,2013-03-02 17:41:00,
2013-03-02 09:45:00,70.6,23.6,30.21,SSW,196,0.0,0.0,17,0.00,CLR,FEW,0.00,625.8,WeatherDisplay:10.37,2013-03-02 17:45:00,
2013-03-02 09:46:00,70.8,23.8,30.21,SSW,196,0.0,0.0,17,0.00,CLR,FEW,0.00,627.9,WeatherDisplay:10.37,2013-03-02 17:46:00,
2013-03-02 09:48:00,71.1,22.6,30.21,SSW,196,0.2,1.2,16,0.00,CLR,FEW,0.00,633.1,WeatherDisplay:10.37,2013-03-02 17:48:00,
2013-03-02 09:50:00,71.3,22.7,30.21,SW,234,0.6,2.6,16,0.00,CLR,FEW,0.00,640.5,WeatherDisplay:10.37,2013-03-02 17:50:00,
2013-03-02 09:51:00,71.3,22.7,30.21,SW,234,1.8,3.5,16,0.00,CLR,FEW,0.00,643.6,WeatherDisplay:10.37,2013-03-02 17:51:00,
2013-03-02 09:52:00,71.3,24.2,30.21,WSW,242,3.7,6.9,17,0.00,CLR,FEW,0.00,647.9,WeatherDisplay:10.37,2013-03-02 17:52:00,
2013-03-02 09:54:00,71.1,24.0,30.21,WSW,242,2.4,6.9,17,0.00,CLR,FEW,0.00,652.0,WeatherDisplay:10.37,2013-03-02 17:54:00,
2013-03-02 09:55:00,71.1,22.6,30.21,WSW,242,3.2,3.5,16,0.00,CLR,FEW,0.00,653.1,WeatherDisplay:10.37,2013-03-02 17:55:00,
2013-03-02 09:56:00,71.1,22.6,30.21,WSW,242,0.8,3.9,16,0.00,CLR,FEW,0.00,655.2,WeatherDisplay:10.37,2013-03-02 17:56:00,
2013-03-02 09:57:00,71.1,24.0,30.21,WSW,242,0.4,3.5,17,0.00,CLR,FEW,0.00,659.4,WeatherDisplay:10.37,2013-03-02 17:57:00,
2013-03-02 09:59:00,71.5,22.9,30.21,WSW,241,0.0,2.3,16,0.00,CLR,FEW,0.00,660.5,WeatherDisplay:10.37,2013-03-02 17:59:00,
2013-03-02 10:00:00,71.6,21.5,30.21,WSW,241,0.0,0.0,15,0.00,CLR,FEW,0.00,666.8,WeatherDisplay:10.37,2013-03-02 18:00:00,
2013-03-02 10:01:00,71.8,23.2,30.21,WSW,241,2.1,2.6,16,0.00,CLR,FEW,0.00,669.9,WeatherDisplay:10.37,2013-03-02 18:01:00,
2013-03-02 10:02:00,72.0,18.4,30.21,WSW,242,0.0,5.8,13,0.00,CLR,FEW,0.00,674.1,WeatherDisplay:10.37,2013-03-02 18:02:00,
2013-03-02 10:04:00,72.1,23.4,30.21,WSW,241,0.1,1.2,16,0.00,CLR,FEW,0.00,677.3,WeatherDisplay:10.37,2013-03-02 18:04:00,
2013-03-02 10:06:00,72.5,22.2,30.21,WSW,241,2.4,6.9,15,0.00,CLR,FEW,0.00,682.5,WeatherDisplay:10.37,2013-03-02 18:06:00,
2013-03-02 10:08:00,72.5,20.5,30.21,WSW,242,0.2,1.2,14,0.00,CLR,FEW,0.00,684.6,WeatherDisplay:10.37,2013-03-02 18:08:00,
2013-03-02 10:09:00,72.7,20.7,30.21,WSW,242,1.1,2.3,14,0.00,CLR,FEW,0.00,686.7,WeatherDisplay:10.37,2013-03-02 18:09:00,
2013-03-02 10:11:00,72.7,20.7,30.21,WSW,242,0.0,2.3,14,0.00,CLR,FEW,0.00,694.0,WeatherDisplay:10.37,2013-03-02 18:11:00,
2013-03-02 10:12:00,72.8,22.4,30.21,WSW,242,0.0,0.0,15,0.00,CLR,FEW,0.00,694.0,WeatherDisplay:10.37,2013-03-02 18:12:00,
2013-03-02 10:13:00,72.8,22.4,30.21,WSW,242,0.0,0.0,15,0.00,CLR,FEW,0.00,694.0,WeatherDisplay:10.37,2013-03-02 18:13:00,
2013-03-02 10:16:00,73.2,22.7,30.21,WSW,246,0.0,3.5,15,0.00,CLR,FEW,0.00,703.5,WeatherDisplay:10.37,2013-03-02 18:16:00,
2013-03-02 10:18:00,73.5,23.0,30.21,WSW,246,0.0,0.0,15,0.00,CLR,FEW,0.00,704.5,WeatherDisplay:10.37,2013-03-02 18:18:00,
2013-03-02 10:19:00,73.8,23.3,30.21,WSW,244,0.0,0.0,15,0.00,CLR,FEW,0.00,710.9,WeatherDisplay:10.37,2013-03-02 18:19:00,
2013-03-02 10:21:00,74.4,20.3,30.21,SW,225,0.0,0.0,13,0.00,CLR,FEW,0.00,716.1,WeatherDisplay:10.37,2013-03-02 18:21:00,
2013-03-02 10:22:00,74.4,20.3,30.21,SW,225,0.0,0.0,13,0.00,CLR,FEW,0.00,716.1,WeatherDisplay:10.37,2013-03-02 18:22:00,
2013-03-02 10:23:00,74.6,20.5,30.21,SW,225,0.0,0.0,13,0.00,CLR,FEW,0.00,718.2,WeatherDisplay:10.37,2013-03-02 18:23:00,
2013-03-02 10:25:00,74.9,20.7,30.21,WSW,257,0.0,5.8,13,0.00,CLR,FEW,0.00,725.5,WeatherDisplay:10.37,2013-03-02 18:25:00,
2013-03-02 10:26:00,74.9,20.7,30.21,WSW,257,0.0,0.0,13,0.00,CLR,FEW,0.00,728.7,WeatherDisplay:10.37,2013-03-02 18:26:00,
2013-03-02 10:27:00,74.9,20.7,30.21,WSW,257,0.0,0.0,13,0.00,CLR,FEW,0.00,728.7,WeatherDisplay:10.37,2013-03-02 18:27:00,
2013-03-02 10:28:00,74.9,18.8,30.21,WSW,252,1.6,5.2,12,0.00,CLR,FEW,0.00,730.8,WeatherDisplay:10.37,2013-03-02 18:28:00,
2013-03-02 10:30:00,74.7,20.5,30.20,WSW,251,1.1,3.9,13,0.00,CLR,FEW,0.00,736.0,WeatherDisplay:10.37,2013-03-02 18:30:00,
2013-03-02 10:31:00,74.7,18.7,30.20,WSW,250,1.7,5.8,12,0.00,CLR,FEW,0.00,738.1,WeatherDisplay:10.37,2013-03-02 18:31:00,
2013-03-02 10:33:00,74.7,22.3,30.20,WSW,250,0.0,0.0,14,0.00,CLR,FEW,0.00,736.0,WeatherDisplay:10.37,2013-03-02 18:33:00,
2013-03-02 10:34:00,74.9,18.8,30.20,WSW,251,0.0,0.0,12,0.00,CLR,FEW,0.00,738.1,WeatherDisplay:10.37,2013-03-02 18:34:00,
2013-03-02 10:36:00,75.1,17.0,30.20,WSW,251,0.0,0.0,11,0.00,CLR,FEW,0.00,742.4,WeatherDisplay:10.37,2013-03-02 18:36:00,
2013-03-02 10:37:00,75.4,17.2,30.20,WSW,251,0.0,0.0,11,0.00,CLR,FEW,0.00,747.6,WeatherDisplay:10.37,2013-03-02 18:37:00,
2013-03-02 10:38:00,75.4,19.2,30.20,WSW,251,0.0,0.0,12,0.00,CLR,FEW,0.00,750.8,WeatherDisplay:10.37,2013-03-02 18:38:00,
2013-03-02 10:39:00,75.6,19.4,30.20,WSW,251,0.1,1.3,12,0.00,CLR,FEW,0.00,750.8,WeatherDisplay:10.37,2013-03-02 18:39:00,
2013-03-02 10:43:00,76.0,17.6,30.20,WSW,250,0.0,0.0,11,0.00,CLR,FEW,0.00,762.3,WeatherDisplay:10.37,2013-03-02 18:43:00,
2013-03-02 10:44:00,76.0,17.6,30.20,WSW,250,0.0,0.0,11,0.00,CLR,FEW,0.00,764.4,WeatherDisplay:10.37,2013-03-02 18:44:00,
2013-03-02 10:48:00,76.5,20.1,30.20,WSW,250,0.0,0.0,12,0.00,CLR,FEW,0.00,767.5,WeatherDisplay:10.37,2013-03-02 18:48:00,
2013-03-02 10:49:00,76.5,18.0,30.20,WSW,250,0.3,2.3,11,0.00,CLR,FEW,0.00,758.1,WeatherDisplay:10.37,2013-03-02 18:49:00,
2013-03-02 10:50:00,76.7,20.2,30.20,WSW,250,0.0,0.0,12,0.00,CLR,FEW,0.00,760.2,WeatherDisplay:10.37,2013-03-02 18:50:00,
2013-03-02 10:53:00,76.8,20.3,30.20,WSW,250,0.0,0.0,12,0.00,CLR,FEW,0.00,745.5,WeatherDisplay:10.37,2013-03-02 18:53:00,
2013-03-02 10:54:00,77.0,18.4,30.20,WSW,250,0.0,0.0,11,0.00,CLR,FEW,0.00,721.4,WeatherDisplay:10.37,2013-03-02 18:54:00,
2013-03-02 10:56:00,76.8,18.3,30.20,WSW,249,0.1,6.9,11,0.00,CLR,FEW,0.00,750.8,WeatherDisplay:10.37,2013-03-02 18:56:00,
2013-03-02 10:58:00,76.8,18.3,30.20,WSW,249,0.0,3.5,11,0.00,CLR,FEW,0.00,782.3,WeatherDisplay:10.37,2013-03-02 18:58:00,
2013-03-02 10:59:00,77.0,18.4,30.20,WSW,250,1.2,3.9,11,0.00,CLR,FEW,0.00,786.5,WeatherDisplay:10.37,2013-03-02 18:59:00,
2013-03-02 11:01:00,77.4,16.5,30.20,WSW,250,0.0,0.0,10,0.00,CLR,FEW,0.00,789.6,WeatherDisplay:10.37,2013-03-02 19:01:00,
2013-03-02 11:04:00,77.2,18.6,30.20,WSW,250,0.7,5.8,11,0.00,CLR,FEW,0.00,789.6,WeatherDisplay:10.37,2013-03-02 19:04:00,
2013-03-02 11:05:00,77.2,16.4,30.20,WSW,250,1.1,2.3,10,0.00,CLR,FEW,0.00,791.7,WeatherDisplay:10.37,2013-03-02 19:05:00,
2013-03-02 11:07:00,77.4,16.5,30.20,WSW,250,0.0,0.0,10,0.00,CLR,FEW,0.00,795.9,WeatherDisplay:10.37,2013-03-02 19:07:00,
2013-03-02 11:09:00,77.6,16.7,30.20,WSW,250,0.1,3.5,10,0.00,CLR,FEW,0.00,797.0,WeatherDisplay:10.37,2013-03-02 19:09:00,
2013-03-02 11:10:00,77.6,18.9,30.20,WSW,249,0.5,5.2,11,0.00,CLR,FEW,0.00,799.0,WeatherDisplay:10.37,2013-03-02 19:10:00,
2013-03-02 11:13:00,77.6,16.7,30.20,WSW,244,8.1,10.4,10,0.00,CLR,FEW,0.00,803.3,WeatherDisplay:10.37,2013-03-02 19:13:00,
2013-03-02 11:14:00,77.6,16.7,30.20,WSW,244,1.0,9.2,10,0.00,CLR,FEW,0.00,804.3,WeatherDisplay:10.37,2013-03-02 19:14:00,
2013-03-02 11:15:00,77.6,16.7,30.20,WSW,244,0.2,0.0,10,0.00,CLR,FEW,0.00,804.3,WeatherDisplay:10.37,2013-03-02 19:15:00,
2013-03-02 11:16:00,77.7,16.7,30.20,WSW,244,0.2,1.2,10,0.00,CLR,FEW,0.00,806.4,WeatherDisplay:10.37,2013-03-02 19:16:00,
2013-03-02 11:19:00,77.9,16.9,30.20,WSW,244,0.0,2.3,10,0.00,CLR,FEW,0.00,813.8,WeatherDisplay:10.37,2013-03-02 19:19:00,
2013-03-02 11:21:00,78.3,17.2,30.20,WSW,244,0.1,1.2,10,0.00,CLR,FEW,0.00,813.8,WeatherDisplay:10.37,2013-03-02 19:21:00,
2013-03-02 11:22:00,78.5,17.4,30.20,WSW,244,0.0,0.0,10,0.00,CLR,FEW,0.00,815.9,WeatherDisplay:10.37,2013-03-02 19:22:00,
2013-03-02 11:24:00,78.6,17.4,30.20,WSW,244,0.0,0.0,10,0.00,CLR,FEW,0.00,819.0,WeatherDisplay:10.37,2013-03-02 19:24:00,
2013-03-02 11:26:00,79.0,17.7,30.20,WSW,244,0.0,0.0,10,0.00,CLR,FEW,0.00,825.3,WeatherDisplay:10.37,2013-03-02 19:26:00,
2013-03-02 11:27:00,79.0,17.7,30.20,WSW,244,0.0,0.0,10,0.00,CLR,FEW,0.00,827.4,WeatherDisplay:10.37,2013-03-02 19:27:00,
2013-03-02 11:29:00,79.6,18.2,30.20,WSW,244,0.0,0.0,10,0.00,CLR,FEW,0.00,834.8,WeatherDisplay:10.37,2013-03-02 19:29:00,
2013-03-02 11:31:00,80.3,13.6,30.19,WSW,244,0.2,0.0,8,0.00,CLR,FEW,0.00,840.0,WeatherDisplay:10.37,2013-03-02 19:31:00,
2013-03-02 11:32:00,80.3,16.3,30.19,WSW,244,0.0,1.2,9,0.00,CLR,FEW,0.00,843.1,WeatherDisplay:10.37,2013-03-02 19:32:00,
2013-03-02 11:34:00,80.3,16.3,30.19,WSW,244,1.2,5.8,9,0.00,CLR,FEW,0.00,827.4,WeatherDisplay:10.37,2013-03-02 19:34:00,
2013-03-02 11:36:00,80.1,16.1,30.19,WSW,240,0.2,0.0,9,0.00,CLR,FEW,0.00,782.3,WeatherDisplay:10.37,2013-03-02 19:36:00,
2013-03-02 11:37:00,80.1,13.4,30.19,WSW,240,0.0,1.2,8,0.00,CLR,FEW,0.00,803.3,WeatherDisplay:10.37,2013-03-02 19:37:00,
2013-03-02 11:39:00,80.1,16.1,30.19,WSW,243,0.1,5.2,9,0.00,CLR,FEW,0.00,799.0,WeatherDisplay:10.37,2013-03-02 19:39:00,
2013-03-02 11:40:00,80.1,13.4,30.19,WSW,244,1.4,6.9,8,0.00,CLR,FEW,0.00,799.0,WeatherDisplay:10.37,2013-03-02 19:40:00,
2013-03-02 11:41:00,80.1,16.1,30.19,WSW,244,0.2,6.9,9,0.00,CLR,FEW,0.00,771.8,WeatherDisplay:10.37,2013-03-02 19:41:00,
2013-03-02 11:44:00,80.1,16.1,30.19,WSW,254,0.0,5.8,9,0.00,CLR,FEW,0.00,803.3,WeatherDisplay:10.37,2013-03-02 19:44:00,
2013-03-02 11:45:00,80.1,13.4,30.18,WSW,254,0.0,0.0,8,0.00,CLR,FEW,0.00,773.9,WeatherDisplay:10.37,2013-03-02 19:45:00,
2013-03-02 11:46:00,80.1,13.4,30.18,WSW,254,0.0,0.0,8,0.00,CLR,FEW,0.00,723.5,WeatherDisplay:10.37,2013-03-02 19:46:00,
2013-03-02 11:49:00,80.5,13.7,30.18,WSW,254,0.0,0.0,8,0.00,CLR,FEW,0.00,703.5,WeatherDisplay:10.37,2013-03-02 19:49:00,
2013-03-02 11:50:00,80.5,13.7,30.18,WSW,254,0.0,0.0,8,0.00,CLR,FEW,0.00,747.6,WeatherDisplay:10.37,2013-03-02 19:50:00,
2013-03-02 11:51:00,80.5,16.4,30.18,WSW,254,0.0,0.0,9,0.00,CLR,FEW,0.00,747.6,WeatherDisplay:10.37,2013-03-02 19:51:00,
2013-03-02 11:53:00,80.7,16.6,30.18,WSW,254,0.0,0.0,9,0.00,CLR,FEW,0.00,730.8,WeatherDisplay:10.37,2013-03-02 19:53:00,
2013-03-02 11:54:00,80.7,16.6,30.18,WSW,254,0.0,0.0,9,0.00,CLR,FEW,0.00,757.0,WeatherDisplay:10.37,2013-03-02 19:54:00,
2013-03-02 11:56:00,80.7,16.6,30.18,WSW,254,0.0,2.6,9,0.00,CLR,FEW,0.00,723.5,WeatherDisplay:10.37,2013-03-02 19:56:00,
2013-03-02 11:58:00,80.5,16.4,30.18,WSW,248,5.4,8.1,9,0.00,CLR,FEW,0.00,667.8,WeatherDisplay:10.37,2013-03-02 19:58:00,
2013-03-02 11:59:00,80.3,13.6,30.18,WSW,257,9.2,10.4,8,0.00,CLR,FEW,0.00,795.9,WeatherDisplay:10.37,2013-03-02 19:59:00,
2013-03-02 12:01:00,79.8,13.2,30.18,WSW,253,6.4,10.4,8,0.00,CLR,FEW,0.00,795.9,WeatherDisplay:10.37,2013-03-02 20:01:00,
2013-03-02 12:03:00,79.6,13.1,30.18,WSW,246,7.7,11.5,8,0.00,CLR,FEW,0.00,752.9,WeatherDisplay:10.37,2013-03-02 20:03:00,
2013-03-02 12:04:00,79.6,15.8,30.18,SW,229,0.0,0.0,9,0.00,CLR,FEW,0.00,834.8,WeatherDisplay:10.37,2013-03-02 20:04:00,
2013-03-02 12:06:00,79.9,16.0,30.18,WSW,243,6.7,8.1,9,0.00,CLR,FEW,0.00,845.3,WeatherDisplay:10.37,2013-03-02 20:06:00,
2013-03-02 12:08:00,80.3,16.3,30.18,SSW,198,6.8,9.1,9,0.00,CLR,FEW,0.00,847.4,WeatherDisplay:10.37,2013-03-02 20:08:00,
2013-03-02 12:09:00,80.3,16.3,30.18,SW,236,7.4,9.2,9,0.00,CLR,FEW,0.00,847.4,WeatherDisplay:10.37,2013-03-02 20:09:00,
2013-03-02 12:11:00,79.9,16.0,30.18,WSW,243,5.7,8.1,9,0.00,CLR,FEW,0.00,835.8,WeatherDisplay:10.37,2013-03-02 20:11:00,
2013-03-02 12:13:00,80.1,20.8,30.18,WSW,246,5.0,6.9,11,0.00,CLR,FEW,0.00,819.0,WeatherDisplay:10.37,2013-03-02 20:13:00,
2013-03-02 12:14:00,80.3,21.0,30.18,WSW,246,6.2,9.2,11,0.00,CLR,FEW,0.00,819.0,WeatherDisplay:10.37,2013-03-02 20:14:00,
2013-03-02 12:17:00,80.3,16.3,30.17,SSW,202,0.0,0.0,9,0.00,CLR,FEW,0.00,847.4,WeatherDisplay:10.37,2013-03-02 20:17:00,
2013-03-02 12:18:00,80.3,16.3,30.17,South,190,4.2,6.5,9,0.00,CLR,FEW,0.00,845.3,WeatherDisplay:10.37,2013-03-02 20:18:00,
2013-03-02 12:19:00,80.3,16.3,30.17,SW,220,4.8,9.2,9,0.00,CLR,FEW,0.00,845.3,WeatherDisplay:10.37,2013-03-02 20:19:00,
2013-03-02 12:23:00,79.9,18.4,30.17,WSW,245,2.5,16.1,10,0.00,CLR,FEW,0.00,832.6,WeatherDisplay:10.37,2013-03-02 20:23:00,
2013-03-02 12:24:00,79.9,18.4,30.17,WSW,245,2.6,16.1,10,0.00,CLR,FEW,0.00,832.6,WeatherDisplay:10.37,2013-03-02 20:24:00,
2013-03-02 12:29:00,80.1,18.6,30.17,WSW,244,1.5,10.4,10,0.00,CLR,FEW,0.00,834.8,WeatherDisplay:10.37,2013-03-02 20:29:00,
2013-03-02 12:34:00,80.3,16.3,30.17,WSW,246,1.6,6.9,9,0.00,CLR,FEW,0.00,840.0,WeatherDisplay:10.37,2013-03-02 20:34:00,
2013-03-02 12:36:00,80.3,16.3,30.17,WSW,246,0.0,0.0,9,0.00,CLR,FEW,0.00,842.1,WeatherDisplay:10.37,2013-03-02 20:36:00,
2013-03-02 12:39:00,80.3,16.3,30.17,WSW,247,9.0,11.5,9,0.00,CLR,FEW,0.00,840.0,WeatherDisplay:10.37,2013-03-02 20:39:00,
2013-03-02 12:41:00,79.8,13.2,30.17,WSW,243,1.4,10.4,8,0.00,CLR,FEW,0.00,827.4,WeatherDisplay:10.37,2013-03-02 20:41:00,
2013-03-02 12:44:00,79.8,13.2,30.17,WSW,247,9.2,10.4,8,0.00,CLR,FEW,0.00,835.8,WeatherDisplay:10.37,2013-03-02 20:44:00,
2013-03-02 12:45:00,79.6,13.1,30.17,WSW,246,6.0,10.4,8,0.00,CLR,FEW,0.00,835.8,WeatherDisplay:10.37,2013-03-02 20:45:00,
2013-03-02 12:47:00,79.6,13.1,30.15,WSW,249,5.2,10.4,8,0.00,CLR,FEW,0.00,830.5,WeatherDisplay:10.37,2013-03-02 20:47:00,
2013-03-02 12:49:00,79.9,16.0,30.15,WSW,248,1.0,8.1,9,0.00,CLR,FEW,0.00,832.6,WeatherDisplay:10.37,2013-03-02 20:49:00,
2013-03-02 12:50:00,80.3,16.3,30.15,WSW,254,3.7,5.8,9,0.00,CLR,FEW,0.00,832.6,WeatherDisplay:10.37,2013-03-02 20:50:00,
2013-03-02 12:52:00,80.3,13.6,30.15,WSW,253,0.2,3.9,8,0.00,CLR,FEW,0.00,832.6,WeatherDisplay:10.37,2013-03-02 20:52:00,
2013-03-02 12:55:00,80.7,16.6,30.15,WSW,247,4.5,9.2,9,0.00,CLR,FEW,0.00,818.0,WeatherDisplay:10.37,2013-03-02 20:55:00,
2013-03-02 12:57:00,80.9,14.0,30.15,WSW,248,0.0,3.5,8,0.00,CLR,FEW,0.00,797.0,WeatherDisplay:10.37,2013-03-02 20:57:00,
2013-03-02 12:58:00,80.9,14.0,30.15,West,264,0.3,3.5,8,0.00,CLR,FEW,0.00,784.4,WeatherDisplay:10.37,2013-03-02 20:58:00,
2013-03-02 13:00:00,81.1,11.1,30.15,WSW,245,1.5,5.8,7,0.00,CLR,FEW,0.00,803.3,WeatherDisplay:10.37,2013-03-02 21:00:00,
2013-03-02 13:02:00,81.2,14.2,30.15,West,261,0.5,2.3,8,0.00,CLR,FEW,0.00,821.1,WeatherDisplay:10.37,2013-03-02 21:02:00,
2013-03-02 13:03:00,81.4,14.4,30.15,West,261,0.0,0.0,8,0.00,CLR,FEW,0.00,813.8,WeatherDisplay:10.37,2013-03-02 21:03:00,
2013-03-02 13:05:00,81.1,11.1,30.15,West,260,0.0,0.0,7,0.00,CLR,FEW,0.00,819.0,WeatherDisplay:10.37,2013-03-02 21:05:00,
2013-03-02 13:07:00,80.9,11.0,30.15,WSW,255,0.5,2.3,7,0.00,CLR,FEW,0.00,804.3,WeatherDisplay:10.37,2013-03-02 21:07:00,
2013-03-02 13:08:00,80.9,14.0,30.15,WSW,255,0.0,0.0,8,0.00,CLR,FEW,0.00,803.3,WeatherDisplay:10.37,2013-03-02 21:08:00,
2013-03-02 13:10:00,81.1,11.1,30.15,West,261,0.8,5.2,7,0.00,CLR,FEW,0.00,779.1,WeatherDisplay:10.37,2013-03-02 21:10:00,
2013-03-02 13:13:00,81.4,11.4,30.15,WSW,245,5.7,12.7,7,0.00,CLR,FEW,0.00,774.9,WeatherDisplay:10.37,2013-03-02 21:13:00,
2013-03-02 13:14:00,81.6,11.5,30.15,WSW,253,2.6,9.2,7,0.00,CLR,FEW,0.00,758.1,WeatherDisplay:10.37,2013-03-02 21:14:00,
2013-03-02 13:15:00,81.6,11.5,30.15,WSW,250,14.1,17.3,7,0.00,CLR,FEW,0.00,704.5,WeatherDisplay:10.37,2013-03-02 21:15:00,
2013-03-02 13:16:00,81.6,11.5,30.15,WSW,239,8.5,11.5,7,0.00,CLR,FEW,0.00,758.1,WeatherDisplay:10.37,2013-03-02 21:16:00,
2013-03-02 13:18:00,81.4,11.4,30.15,WSW,251,0.8,9.2,7,0.00,CLR,FEW,0.00,755.0,WeatherDisplay:10.37,2013-03-02 21:18:00,
2013-03-02 13:19:00,81.4,11.4,30.15,WSW,251,0.1,2.3,7,0.00,CLR,FEW,0.00,755.0,WeatherDisplay:10.37,2013-03-02 21:19:00,
2013-03-02 13:20:00,81.4,11.4,30.15,WSW,251,0.0,1.2,7,0.00,CLR,FEW,0.00,771.8,WeatherDisplay:10.37,2013-03-02 21:20:00,
2013-03-02 13:21:00,81.4,14.4,30.15,West,272,3.0,9.1,8,0.00,CLR,FEW,0.00,789.6,WeatherDisplay:10.37,2013-03-02 21:21:00,
2013-03-02 13:23:00,81.6,14.5,30.15,SW,219,0.1,10.4,8,0.00,CLR,FEW,0.00,795.9,WeatherDisplay:10.37,2013-03-02 21:23:00,
2013-03-02 13:25:00,81.4,11.4,30.15,West,264,2.0,9.2,7,0.00,CLR,FEW,0.00,791.7,WeatherDisplay:10.37,2013-03-02 21:25:00,
2013-03-02 13:27:00,81.2,11.2,30.15,WSW,251,1.8,7.8,7,0.00,CLR,FEW,0.00,774.9,WeatherDisplay:10.37,2013-03-02 21:27:00,
2013-03-02 13:28:00,81.4,14.4,30.15,WSW,246,6.0,10.4,8,0.00,CLR,FEW,0.00,795.9,WeatherDisplay:10.37,2013-03-02 21:28:00,
2013-03-02 13:30:00,81.2,11.2,30.14,WSW,246,0.2,2.3,7,0.00,CLR,FEW,0.00,789.6,WeatherDisplay:10.37,2013-03-02 21:30:00,
2013-03-02 13:31:00,81.2,11.2,30.14,WSW,246,0.0,0.0,7,0.00,CLR,FEW,0.00,789.6,WeatherDisplay:10.37,2013-03-02 21:31:00,
2013-03-02 13:32:00,81.2,11.2,30.14,WSW,255,5.5,9.2,7,0.00,CLR,FEW,0.00,793.8,WeatherDisplay:10.37,2013-03-02 21:32:00,
2013-03-02 13:34:00,81.2,14.2,30.14,West,268,0.2,2.3,8,0.00,CLR,FEW,0.00,799.0,WeatherDisplay:10.37,2013-03-02 21:34:00,
2013-03-02 13:35:00,81.2,11.2,30.14,West,275,0.0,0.0,7,0.00,CLR,FEW,0.00,795.9,WeatherDisplay:10.37,2013-03-02 21:35:00,
2013-03-02 13:36:00,81.4,11.4,30.14,West,263,1.4,5.2,7,0.00,CLR,FEW,0.00,771.8,WeatherDisplay:10.37,2013-03-02 21:36:00,
2013-03-02 13:37:00,81.4,11.4,30.14,West,263,1.5,5.8,7,0.00,CLR,FEW,0.00,784.4,WeatherDisplay:10.37,2013-03-02 21:37:00,
2013-03-02 13:39:00,81.4,14.4,30.14,WSW,254,3.6,6.9,8,0.00,CLR,FEW,0.00,774.9,WeatherDisplay:10.37,2013-03-02 21:39:00,
2013-03-02 13:40:00,81.4,11.4,30.14,WSW,250,1.7,6.9,7,0.00,CLR,FEW,0.00,786.5,WeatherDisplay:10.37,2013-03-02 21:40:00,
2013-03-02 13:41:00,81.4,11.4,30.14,WSW,250,0.0,5.8,7,0.00,CLR,FEW,0.00,773.9,WeatherDisplay:10.37,2013-03-02 21:41:00,
2013-03-02 13:43:00,81.6,14.5,30.14,West,263,0.0,0.0,8,0.00,CLR,FEW,0.00,764.4,WeatherDisplay:10.37,2013-03-02 21:43:00,
2013-03-02 13:44:00,81.8,17.4,30.14,WSW,240,9.1,13.8,9,0.00,CLR,FEW,0.00,755.0,WeatherDisplay:10.37,2013-03-02 21:44:00,
2013-03-02 13:45:00,82.2,12.0,30.14,SSW,207,0.4,6.9,7,0.00,CLR,FEW,0.00,757.0,WeatherDisplay:10.37,2013-03-02 21:45:00,
2013-03-02 13:46:00,82.2,12.0,30.14,SSW,207,0.4,1.3,7,0.00,CLR,FEW,0.00,784.4,WeatherDisplay:10.37,2013-03-02 21:46:00,
2013-03-02 13:48:00,82.2,15.0,30.14,WSW,244,3.0,10.4,8,0.00,CLR,FEW,0.00,769.6,WeatherDisplay:10.37,2013-03-02 21:48:00,
2013-03-02 13:49:00,82.0,14.8,30.14,WSW,248,9.8,10.4,8,0.00,CLR,FEW,0.00,779.1,WeatherDisplay:10.37,2013-03-02 21:49:00,
2013-03-02 13:50:00,82.0,11.8,30.14,WSW,246,8.4,10.4,7,0.00,CLR,FEW,0.00,728.7,WeatherDisplay:10.37,2013-03-02 21:50:00,
2013-03-02 13:51:00,81.8,11.7,30.14,WSW,246,9.2,10.4,7,0.00,CLR,FEW,0.00,755.0,WeatherDisplay:10.37,2013-03-02 21:51:00,
2013-03-02 13:53:00,81.6,14.5,30.14,WSW,246,3.8,6.9,8,0.00,CLR,FEW,0.00,716.1,WeatherDisplay:10.37,2013-03-02 21:53:00,
2013-03-02 13:55:00,81.4,17.1,30.14,SSW,201,5.9,9.2,9,0.00,CLR,FEW,0.00,513.5,WeatherDisplay:10.37,2013-03-02 21:55:00,
2013-03-02 13:56:00,81.4,11.4,30.14,WSW,245,6.5,7.8,7,0.00,CLR,FEW,0.00,513.5,WeatherDisplay:10.37,2013-03-02 21:56:00,
2013-03-02 13:57:00,81.6,11.5,30.14,WSW,250,11.5,11.5,7,0.00,CLR,FEW,0.00,742.4,WeatherDisplay:10.37,2013-03-02 21:57:00,
2013-03-02 13:58:00,81.6,11.5,30.14,WSW,252,7.4,11.7,7,0.00,CLR,FEW,0.00,771.8,WeatherDisplay:10.37,2013-03-02 21:58:00,
2013-03-02 14:00:00,81.8,11.7,30.13,WSW,246,5.3,11.5,7,0.00,CLR,FEW,0.00,667.8,WeatherDisplay:10.37,2013-03-02 22:00:00,
2013-03-02 14:01:00,81.8,14.7,30.13,WSW,246,3.7,6.9,8,0.00,CLR,FEW,0.00,716.1,WeatherDisplay:10.37,2013-03-02 22:01:00,
2013-03-02 14:02:00,81.8,11.7,30.13,SSW,196,7.4,11.5,7,0.00,CLR,FEW,0.00,704.5,WeatherDisplay:10.37,2013-03-02 22:02:00,
2013-03-02 14:03:00,81.8,11.7,30.13,SSW,192,7.9,9.1,7,0.00,CLR,FEW,0.00,681.5,WeatherDisplay:10.37,2013-03-02 22:03:00,
2013-03-02 14:06:00,81.2,14.2,30.13,SW,220,7.7,12.7,8,0.00,CLR,FEW,0.00,667.8,WeatherDisplay:10.37,2013-03-02 22:06:00,
2013-03-02 14:07:00,81.2,11.2,30.13,SSW,192,2.6,9.1,7,0.00,CLR,FEW,0.00,721.4,WeatherDisplay:10.37,2013-03-02 22:07:00,
2013-03-02 14:08:00,81.1,11.1,30.13,SW,214,6.8,9.2,7,0.00,CLR,FEW,0.00,631.0,WeatherDisplay:10.37,2013-03-02 22:08:00,
2013-03-02 14:12:00,81.1,14.2,30.13,WSW,249,4.7,10.4,8,0.00,CLR,FEW,0.00,692.0,WeatherDisplay:10.37,2013-03-02 22:12:00,
2013-03-02 14:13:00,81.2,11.2,30.13,WSW,248,10.6,10.6,7,0.00,CLR,FEW,0.00,694.0,WeatherDisplay:10.37,2013-03-02 22:13:00,
2013-03-02 14:14:00,81.2,11.2,30.13,WSW,248,0.6,9.2,7,0.00,CLR,FEW,0.00,757.0,WeatherDisplay:10.37,2013-03-02 22:14:00,
2013-03-02 14:17:00,81.1,14.2,30.13,SW,234,3.9,11.5,8,0.00,CLR,FEW,0.00,765.5,WeatherDisplay:10.37,2013-03-02 22:17:00,
2013-03-02 14:18:00,81.1,14.2,30.13,WSW,242,3.0,6.9,8,0.00,CLR,FEW,0.00,765.5,WeatherDisplay:10.37,2013-03-02 22:18:00,
2013-03-02 14:19:00,81.4,14.4,30.13,WSW,248,2.7,6.5,8,0.00,CLR,FEW,0.00,742.4,WeatherDisplay:10.37,2013-03-02 22:19:00,
2013-03-02 14:22:00,82.2,15.0,30.13,South,191,2.0,8.1,8,0.00,CLR,FEW,0.00,633.1,WeatherDisplay:10.37,2013-03-02 22:22:00,
2013-03-02 14:23:00,81.8,11.7,30.13,South,190,8.0,11.5,7,0.00,CLR,FEW,0.00,582.8,WeatherDisplay:10.37,2013-03-02 22:23:00,
2013-03-02 14:24:00,81.6,11.5,30.13,SSW,205,7.9,9.2,7,0.00,CLR,FEW,0.00,582.8,WeatherDisplay:10.37,2013-03-02 22:24:00,
2013-03-02 14:29:00,81.2,11.2,30.13,WSW,241,0.0,0.0,7,0.00,CLR,FEW,0.00,443.1,WeatherDisplay:10.37,2013-03-02 22:29:00,
2013-03-02 14:34:00,80.7,10.9,30.12,WSW,250,0.7,6.5,7,0.00,CLR,FEW,0.00,659.4,WeatherDisplay:10.37,2013-03-02 22:34:00,
2013-03-02 14:35:00,80.7,10.9,30.12,SSW,194,9.6,9.6,7,0.00,CLR,FEW,0.00,284.6,WeatherDisplay:10.37,2013-03-02 22:35:00,
2013-03-02 14:39:00,80.1,10.4,30.12,SSW,211,0.0,1.2,7,0.00,CLR,FEW,0.00,459.9,WeatherDisplay:10.37,2013-03-02 22:39:00,
2013-03-02 14:40:00,80.1,10.4,30.12,SSW,211,0.0,0.0,7,0.00,FEW,,0.00,484.1,WeatherDisplay:10.37,2013-03-02 22:40:00,
2013-03-02 14:41:00,80.3,10.6,30.12,WSW,246,4.8,8.1,7,0.00,FEW,,0.00,545.0,WeatherDisplay:10.37,2013-03-02 22:41:00,
2013-03-02 14:44:00,80.3,10.6,30.12,WSW,247,12.9,13.8,7,0.00,CLR,FEW,0.00,606.9,WeatherDisplay:10.37,2013-03-02 22:44:00,
2013-03-02 14:45:00,80.3,10.6,30.12,WSW,252,11.4,11.5,7,0.00,CLR,FEW,0.00,603.8,WeatherDisplay:10.37,2013-03-02 22:45:00,
2013-03-02 14:47:00,80.3,13.6,30.12,WSW,250,0.0,2.3,8,0.00,CLR,FEW,0.00,640.5,WeatherDisplay:10.37,2013-03-02 22:47:00,
2013-03-02 14:49:00,80.9,14.0,30.12,WSW,254,3.5,9.1,8,0.00,CLR,FEW,0.00,533.4,WeatherDisplay:10.37,2013-03-02 22:49:00,
2013-03-02 14:50:00,80.9,14.0,30.12,WSW,251,5.0,13.0,8,0.00,CLR,FEW,0.00,548.1,WeatherDisplay:10.37,2013-03-02 22:50:00,
2013-03-02 14:51:00,80.9,11.0,30.12,SW,214,3.3,12.7,7,0.00,CLR,FEW,0.00,638.4,WeatherDisplay:10.37,2013-03-02 22:51:00,
2013-03-02 14:52:00,81.1,11.1,30.12,SSW,198,4.2,8.1,7,0.00,CLR,FEW,0.00,682.5,WeatherDisplay:10.37,2013-03-02 22:52:00,
2013-03-02 14:56:00,80.3,10.6,30.12,WSW,249,6.6,9.2,7,0.00,CLR,FEW,0.00,669.9,WeatherDisplay:10.37,2013-03-02 22:56:00,
2013-03-02 14:57:00,80.5,13.7,30.12,SSW,205,4.6,9.2,8,0.00,CLR,FEW,0.00,657.3,WeatherDisplay:10.37,2013-03-02 22:57:00,
2013-03-02 15:01:00,80.5,13.7,30.12,WSW,238,2.6,8.1,8,0.00,CLR,FEW,0.00,367.5,WeatherDisplay:10.37,2013-03-02 23:01:00,
2013-03-02 15:03:00,81.1,14.2,30.12,WNW,286,1.0,5.8,8,0.00,CLR,FEW,0.00,574.4,WeatherDisplay:10.37,2013-03-02 23:03:00,
2013-03-02 15:06:00,81.2,7.8,30.12,WSW,251,11.3,12.7,6,0.00,CLR,FEW,0.00,350.7,WeatherDisplay:10.37,2013-03-02 23:06:00,
2013-03-02 15:08:00,81.1,7.7,30.12,WSW,252,7.1,10.4,6,0.00,CLR,FEW,0.00,287.7,WeatherDisplay:10.37,2013-03-02 23:08:00,
2013-03-02 15:11:00,80.3,7.1,30.12,WSW,248,4.6,6.9,6,0.00,SCT,FEW,0.00,355.9,WeatherDisplay:10.37,2013-03-02 23:11:00,
2013-03-02 15:12:00,80.3,10.6,30.12,WSW,248,1.0,3.5,7,0.00,SCT,FEW,0.00,594.3,WeatherDisplay:10.37,2013-03-02 23:12:00,
2013-03-02 15:13:00,80.3,13.6,30.12,WSW,248,0.1,5.2,8,0.00,FEW,,0.00,594.3,WeatherDisplay:10.37,2013-03-02 23:13:00,
2013-03-02 15:14:00,80.3,10.6,30.12,WSW,248,9.2,10.4,7,0.00,CLR,FEW,0.00,594.3,WeatherDisplay:10.37,2013-03-02 23:14:00,
2013-03-02 15:16:00,80.3,13.6,30.11,WSW,247,1.4,6.9,8,0.00,CLR,FEW,0.00,291.9,WeatherDisplay:10.37,2013-03-02 23:16:00,
2013-03-02 15:17:00,80.3,10.6,30.11,WSW,248,7.6,9.2,7,0.00,CLR,FEW,0.00,313.9,WeatherDisplay:10.37,2013-03-02 23:17:00,
2013-03-02 15:18:00,80.1,10.4,30.11,WSW,248,7.8,9.2,7,0.00,FEW,,0.00,350.7,WeatherDisplay:10.37,2013-03-02 23:18:00,
2013-03-02 15:19:00,80.1,13.4,30.11,WSW,240,2.1,6.9,8,0.00,FEW,,0.00,407.4,WeatherDisplay:10.37,2013-03-02 23:19:00,
2013-03-02 15:23:00,80.1,16.1,30.11,WSW,243,4.8,6.9,9,0.00,FEW,,0.00,308.7,WeatherDisplay:10.37,2013-03-02 23:23:00,
2013-03-02 15:24:00,80.1,16.1,30.11,SW,218,4.3,9.2,9,0.00,FEW,,0.00,407.4,WeatherDisplay:10.37,2013-03-02 23:24:00,
2013-03-02 15:25:00,79.9,10.3,30.11,SSW,196,4.4,6.9,7,0.00,FEW,,0.00,463.1,WeatherDisplay:10.37,2013-03-02 23:25:00,
2013-03-02 15:28:00,79.9,13.3,30.11,SW,228,0.1,0.0,8,0.00,CLR,FEW,0.00,231.0,WeatherDisplay:10.37,2013-03-02 23:28:00,
2013-03-02 15:29:00,79.9,13.3,30.11,SW,236,0.0,1.2,8,0.00,CLR,FEW,0.00,245.7,WeatherDisplay:10.37,2013-03-02 23:29:00,
2013-03-02 15:30:00,79.8,10.2,30.11,SSW,209,0.0,1.3,7,0.00,CLR,FEW,0.00,328.6,WeatherDisplay:10.37,2013-03-02 23:30:00,
2013-03-02 15:33:00,79.6,10.0,30.11,WSW,247,7.0,10.4,7,0.00,FEW,,0.00,313.9,WeatherDisplay:10.37,2013-03-02 23:33:00,
2013-03-02 15:34:00,79.6,13.1,30.11,WSW,237,2.0,0.0,8,0.00,FEW,FEW,0.00,345.4,WeatherDisplay:10.37,2013-03-02 23:34:00,
2013-03-02 15:36:00,79.4,9.9,30.11,SW,214,3.1,6.5,7,0.00,CLR,FEW,0.00,319.2,WeatherDisplay:10.37,2013-03-02 23:36:00,
2013-03-02 15:39:00,79.2,15.5,30.11,SW,225,0.1,3.5,9,0.00,FEW,,0.00,182.7,WeatherDisplay:10.37,2013-03-02 23:39:00,
2013-03-02 15:40:00,79.2,12.8,30.11,SW,223,0.1,1.2,8,0.00,FEW,,0.00,184.8,WeatherDisplay:10.37,2013-03-02 23:40:00,
2013-03-02 15:41:00,79.2,12.8,30.11,SW,222,0.0,1.2,8,0.00,SCT,FEW,0.00,180.6,WeatherDisplay:10.37,2013-03-02 23:41:00,
2013-03-02 15:44:00,78.8,12.5,30.11,SW,225,0.0,2.3,8,0.00,BKN,FEW,0.00,118.7,WeatherDisplay:10.37,2013-03-02 23:44:00,
2013-03-02 15:45:00,78.6,9.3,30.10,WSW,240,0.1,1.3,7,0.00,BKN,FEW,0.00,116.5,WeatherDisplay:10.37,2013-03-02 23:45:00,
2013-03-02 15:46:00,78.5,9.2,30.10,WSW,243,0.6,2.3,7,0.00,BKN,FEW,0.00,112.3,WeatherDisplay:10.37,2013-03-02 23:46:00,
2013-03-02 15:49:00,77.9,11.8,30.10,WSW,240,0.0,0.0,8,0.00,BKN,FEW,0.00,109.2,WeatherDisplay:10.37,2013-03-02 23:49:00,
2013-03-02 15:51:00,77.7,11.6,30.10,WSW,240,0.0,0.0,8,0.00,BKN,FEW,0.00,109.2,WeatherDisplay:10.37,2013-03-02 23:51:00,
2013-03-02 15:52:00,77.6,14.2,30.10,WSW,240,0.0,0.0,9,0.00,BKN,FEW,0.00,110.3,WeatherDisplay:10.37,2013-03-02 23:52:00,
2013-03-02 15:55:00,77.4,14.1,30.10,WSW,241,0.0,0.0,9,0.00,BKN,FEW,0.00,118.7,WeatherDisplay:10.37,2013-03-02 23:55:00,
2013-03-02 15:57:00,77.2,11.3,30.10,WSW,248,0.9,8.1,8,0.00,BKN,FEW,0.00,123.9,WeatherDisplay:10.37,2013-03-02 23:57:00,
2013-03-02 15:58:00,77.0,13.8,30.10,WSW,248,0.0,0.0,9,0.00,BKN,FEW,0.00,131.3,WeatherDisplay:10.37,2013-03-02 23:58:00,
2013-03-02 16:01:00,76.8,16.1,30.10,SW,219,0.0,0.0,10,0.00,BKN,FEW,0.00,136.5,WeatherDisplay:10.37,2013-03-03 00:01:00,
2013-03-02 16:03:00,76.7,13.6,30.10,SW,217,0.0,0.0,9,0.00,BKN,FEW,0.00,140.7,WeatherDisplay:10.37,2013-03-03 00:03:00,
2013-03-02 16:04:00,76.5,13.4,30.10,SW,217,0.0,0.0,9,0.00,BKN,FEW,0.00,145.9,WeatherDisplay:10.37,2013-03-03 00:04:00,
2013-03-02 16:08:00,76.3,15.7,30.10,SW,217,0.0,0.0,10,0.00,SCT,FEW,0.00,143.8,WeatherDisplay:10.37,2013-03-03 00:08:00,
2013-03-02 16:10:00,76.1,15.5,30.10,SW,217,0.0,0.0,10,0.00,SCT,FEW,0.00,140.7,WeatherDisplay:10.37,2013-03-03 00:10:00,
2013-03-02 16:13:00,76.0,17.6,30.10,SW,217,0.0,0.0,11,0.00,SCT,FEW,0.00,143.8,WeatherDisplay:10.37,2013-03-03 00:13:00,
2013-03-02 16:14:00,76.0,17.6,30.10,SW,217,0.0,0.0,11,0.00,SCT,FEW,0.00,138.6,WeatherDisplay:10.37,2013-03-03 00:14:00,
2013-03-02 16:15:00,75.8,17.5,30.10,SW,217,0.0,0.0,11,0.00,SCT,FEW,0.00,134.4,WeatherDisplay:10.37,2013-03-03 00:15:00,
2013-03-02 16:16:00,75.8,15.3,30.10,SW,217,0.0,0.0,10,0.00,SCT,FEW,0.00,134.4,WeatherDisplay:10.37,2013-03-03 00:16:00,
2013-03-02 16:18:00,75.8,19.5,30.10,SW,217,0.0,0.0,12,0.00,SCT,FEW,0.00,133.3,WeatherDisplay:10.37,2013-03-03 00:18:00,
2013-03-02 16:19:00,75.8,19.5,30.10,SW,217,0.0,0.0,12,0.00,SCT,FEW,0.00,133.3,WeatherDisplay:10.37,2013-03-03 00:19:00,
2013-03-02 16:21:00,75.6,19.4,30.10,SW,217,0.0,0.0,12,0.00,SCT,FEW,0.00,136.5,WeatherDisplay:10.37,2013-03-03 00:21:00,
2013-03-02 16:25:00,75.6,17.3,30.10,SW,217,0.0,0.0,11,0.00,FEW,,0.00,256.2,WeatherDisplay:10.37,2013-03-03 00:25:00,
2013-03-02 16:26:00,75.8,17.5,30.10,SW,217,0.0,0.0,11,0.00,CLR,FEW,0.00,265.6,WeatherDisplay:10.37,2013-03-03 00:26:00,
2013-03-02 16:27:00,75.8,17.5,30.10,SW,217,0.0,0.0,11,0.00,CLR,FEW,0.00,285.6,WeatherDisplay:10.37,2013-03-03 00:27:00,
2013-03-02 16:30:00,76.1,15.5,30.10,South,191,3.7,7.8,10,0.00,CLR,FEW,0.00,260.4,WeatherDisplay:10.37,2013-03-03 00:30:00,
2013-03-02 16:32:00,76.3,19.9,30.10,South,191,0.0,1.2,12,0.00,CLR,FEW,0.00,221.6,WeatherDisplay:10.37,2013-03-03 00:32:00,
2013-03-02 16:33:00,76.5,18.0,30.10,SSW,192,0.8,2.6,11,0.00,CLR,FEW,0.00,263.6,WeatherDisplay:10.37,2013-03-03 00:33:00,
2013-03-02 16:34:00,76.5,18.0,30.10,SSW,192,0.7,3.5,11,0.00,CLR,FEW,0.00,223.7,WeatherDisplay:10.37,2013-03-03 00:34:00,
2013-03-02 16:35:00,76.8,20.3,30.10,SSW,192,0.0,1.2,12,0.00,CLR,FEW,0.00,195.3,WeatherDisplay:10.37,2013-03-03 00:35:00,
2013-03-02 16:37:00,77.0,16.2,30.10,SSW,192,0.1,1.2,10,0.00,CLR,FEW,0.00,177.4,WeatherDisplay:10.37,2013-03-03 00:37:00,
2013-03-02 16:39:00,77.2,18.6,30.10,SW,223,0.1,1.2,11,0.00,CLR,FEW,0.00,236.3,WeatherDisplay:10.37,2013-03-03 00:39:00,
2013-03-02 16:40:00,77.2,18.6,30.10,SSW,204,0.2,0.0,11,0.00,CLR,FEW,0.00,194.3,WeatherDisplay:10.37,2013-03-03 00:40:00,
2013-03-02 16:44:00,77.4,18.7,30.10,South,189,3.7,8.1,11,0.00,CLR,FEW,0.00,168.0,WeatherDisplay:10.37,2013-03-03 00:44:00,
2013-03-02 16:46:00,77.2,16.4,30.09,SSW,196,5.1,9.2,10,0.00,CLR,FEW,0.00,149.1,WeatherDisplay:10.37,2013-03-03 00:46:00,
2013-03-02 16:49:00,76.7,16.0,30.09,SSW,194,8.2,9.2,10,0.00,FEW,,0.00,119.7,WeatherDisplay:10.37,2013-03-03 00:49:00,
2013-03-02 16:50:00,76.5,15.8,30.09,South,190,4.2,7.8,10,0.00,FEW,,0.00,123.9,WeatherDisplay:10.37,2013-03-03 00:50:00,
2013-03-02 16:52:00,76.3,15.7,30.09,SSW,192,3.5,6.5,10,0.00,FEW,,0.00,109.2,WeatherDisplay:10.37,2013-03-03 00:52:00,
2013-03-02 16:54:00,76.3,15.7,30.09,SSW,205,4.9,6.9,10,0.00,FEW,,0.00,109.2,WeatherDisplay:10.37,2013-03-03 00:54:00,
2013-03-02 16:56:00,76.1,15.5,30.09,South,190,5.4,9.2,10,0.00,FEW,,0.00,99.8,WeatherDisplay:10.37,2013-03-03 00:56:00,
2013-03-02 16:57:00,76.1,15.5,30.09,SSW,198,5.6,9.2,10,0.00,CLR,FEW,0.00,102.9,WeatherDisplay:10.37,2013-03-03 00:57:00,
2013-03-02 16:59:00,76.0,15.4,30.09,South,186,7.9,10.4,10,0.00,CLR,FEW,0.00,109.2,WeatherDisplay:10.37,2013-03-03 00:59:00,
2013-03-02 17:00:00,76.0,15.4,30.10,SSW,195,8.4,9.2,10,0.00,CLR,FEW,0.00,126.0,WeatherDisplay:10.37,2013-03-03 01:00:00,
2013-03-02 17:02:00,75.8,17.5,30.10,SSW,192,3.5,7.8,11,0.00,CLR,FEW,0.00,110.3,WeatherDisplay:10.37,2013-03-03 01:02:00,
2013-03-02 17:04:00,75.6,15.1,30.10,SSW,196,5.4,9.2,10,0.00,FEW,,0.00,77.7,WeatherDisplay:10.37,2013-03-03 01:04:00,
2013-03-02 17:05:00,75.4,15.0,30.10,SSW,192,2.4,8.1,10,0.00,SCT,FEW,0.00,70.3,WeatherDisplay:10.37,2013-03-03 01:05:00,
2013-03-02 17:07:00,75.4,15.0,30.10,SW,215,5.0,6.5,10,0.00,SCT,FEW,0.00,68.3,WeatherDisplay:10.37,2013-03-03 01:07:00,
2013-03-02 17:08:00,75.3,14.9,30.10,South,186,6.2,9.2,10,0.00,SCT,FEW,0.00,68.3,WeatherDisplay:10.37,2013-03-03 01:08:00,
2013-03-02 17:09:00,75.3,14.9,30.10,SSW,193,9.0,12.7,10,0.00,FEW,,0.00,68.3,WeatherDisplay:10.37,2013-03-03 01:09:00,
2013-03-02 17:10:00,75.1,17.0,30.10,SSW,201,4.1,9.2,11,0.00,FEW,,0.00,70.3,WeatherDisplay:10.37,2013-03-03 01:10:00,
2013-03-02 17:13:00,74.9,16.8,30.10,SSW,210,5.2,11.5,11,0.00,FEW,,0.00,66.2,WeatherDisplay:10.37,2013-03-03 01:13:00,
2013-03-02 17:14:00,74.9,14.6,30.10,SSW,212,6.0,9.2,10,0.00,FEW,,0.00,65.1,WeatherDisplay:10.37,2013-03-03 01:14:00,
2013-03-02 17:15:00,74.9,16.8,30.10,SSW,192,4.8,9.2,11,0.00,CLR,FEW,0.00,65.1,WeatherDisplay:10.37,2013-03-03 01:15:00,
2013-03-02 17:18:00,74.7,16.6,30.10,SSW,204,0.0,0.0,11,0.00,FEW,,0.00,53.5,WeatherDisplay:10.37,2013-03-03 01:18:00,
2013-03-02 17:19:00,74.6,16.6,30.10,SSW,211,0.0,1.2,11,0.00,FEW,,0.00,49.4,WeatherDisplay:10.37,2013-03-03 01:19:00,
2013-03-02 17:21:00,74.6,18.6,30.10,South,186,0.0,0.0,12,0.00,FEW,,0.00,48.3,WeatherDisplay:10.37,2013-03-03 01:21:00,
2013-03-02 17:23:00,74.4,18.4,30.10,South,186,0.0,0.0,12,0.00,CLR,FEW,0.00,48.3,WeatherDisplay:10.37,2013-03-03 01:23:00,
2013-03-02 17:24:00,74.4,18.4,30.10,South,186,0.0,0.0,12,0.00,CLR,FEW,0.00,48.3,WeatherDisplay:10.37,2013-03-03 01:24:00,
2013-03-02 17:28:00,73.9,19.9,30.10,South,186,0.0,0.0,13,0.00,FEW,,0.00,34.6,WeatherDisplay:10.37,2013-03-03 01:28:00,
2013-03-02 17:29:00,73.7,19.8,30.10,South,186,0.0,0.0,13,0.00,FEW,,0.00,33.6,WeatherDisplay:10.37,2013-03-03 01:29:00,
2013-03-02 17:30:00,73.7,19.8,30.10,South,186,0.0,0.0,13,0.00,FEW,,0.00,31.5,WeatherDisplay:10.37,2013-03-03 01:30:00,
2013-03-02 17:33:00,73.0,20.9,30.10,SSW,196,0.0,0.0,14,0.00,FEW,,0.00,24.1,WeatherDisplay:10.37,2013-03-03 01:33:00,
2013-03-02 17:34:00,72.8,20.8,30.10,SSW,196,0.0,0.0,14,0.00,FEW,,0.00,24.1,WeatherDisplay:10.37,2013-03-03 01:34:00,
2013-03-02 17:35:00,72.7,20.7,30.10,SSW,196,0.0,0.0,14,0.00,FEW,,0.00,22.1,WeatherDisplay:10.37,2013-03-03 01:35:00,
2013-03-02 17:39:00,72.0,18.4,30.10,South,186,0.1,1.2,13,0.00,CLR,FEW,0.00,14.7,WeatherDisplay:10.37,2013-03-03 01:39:00,
2013-03-02 17:40:00,72.0,18.4,30.10,SSW,202,0.0,0.0,13,0.00,FEW,,0.00,12.6,WeatherDisplay:10.37,2013-03-03 01:40:00,
2013-03-02 17:44:00,71.6,18.1,30.10,SSW,202,0.0,0.0,13,0.00,CLR,FEW,0.00,11.6,WeatherDisplay:10.37,2013-03-03 01:44:00,
2013-03-02 17:45:00,71.5,18.0,30.10,SSW,202,0.0,0.0,13,0.00,CLR,FEW,0.00,9.4,WeatherDisplay:10.37,2013-03-03 01:45:00,
2013-03-02 17:46:00,71.3,19.6,30.10,SE,140,0.0,0.0,14,0.00,CLR,FEW,0.00,7.3,WeatherDisplay:10.37,2013-03-03 01:46:00,
2013-03-02 17:49:00,71.1,17.7,30.10,SSW,196,0.0,0.0,13,0.00,OVC,FEW,0.00,0.0,WeatherDisplay:10.37,2013-03-03 01:49:00,
2013-03-02 17:50:00,70.9,19.3,30.10,SSW,195,0.0,0.0,14,0.00,OVC,FEW,0.00,0.0,WeatherDisplay:10.37,2013-03-03 01:50:00,
2013-03-02 17:51:00,70.9,19.3,30.10,SSW,195,0.0,0.0,14,0.00,OVC,FEW,0.00,0.0,WeatherDisplay:10.37,2013-03-03 01:51:00,
2013-03-02 17:54:00,70.6,17.3,30.10,WSW,244,0.0,0.0,13,0.00,OVC,FEW,0.00,0.0,WeatherDisplay:10.37,2013-03-03 01:54:00,
2013-03-02 17:55:00,70.4,17.2,30.10,WSW,244,0.0,0.0,13,0.00,OVC,FEW,0.00,0.0,WeatherDisplay:10.37,2013-03-03 01:55:00,
2013-03-02 17:56:00,70.4,18.9,30.10,SSW,210,0.0,0.0,14,0.00,OVC,FEW,0.00,0.0,WeatherDisplay:10.37,2013-03-03 01:56:00,
2013-03-02 17:59:00,70.3,18.8,30.10,West,261,0.0,0.0,14,0.00,OVC,FEW,0.00,0.0,WeatherDisplay:10.37,2013-03-03 01:59:00,
2013-03-02 18:00:00,70.1,18.6,30.11,West,261,0.0,0.0,14,0.00,CLR,FEW,0.00,0.0,WeatherDisplay:10.37,2013-03-03 02:00:00,
2013-03-02 18:01:00,70.1,18.6,30.11,West,261,0.0,0.0,14,0.00,CLR,FEW,0.00,0.0,WeatherDisplay:10.37,2013-03-03 02:01:00,
2013-03-02 18:05:00,69.8,18.4,30.11,West,261,0.0,0.0,14,0.00,CLR,FEW,0.00,0.0,WeatherDisplay:10.37,2013-03-03 02:05:00,
2013-03-02 18:06:00,69.8,18.4,30.11,West,261,0.0,0.0,14,0.00,CLR,FEW,0.00,0.0,WeatherDisplay:10.37,2013-03-03 02:06:00,
2013-03-02 18:08:00,69.6,19.9,30.11,NW,325,0.0,0.0,15,0.00,CLR,FEW,0.00,0.0,WeatherDisplay:10.37,2013-03-03 02:08:00,
2013-03-02 18:11:00,69.3,18.0,30.11,NW,326,0.0,0.0,14,0.00,CLR,FEW,0.00,0.0,WeatherDisplay:10.37,2013-03-03 02:11:00,
2013-03-02 18:12:00,69.3,18.0,30.11,NW,326,0.0,0.0,14,0.00,CLR,FEW,0.00,0.0,WeatherDisplay:10.37,2013-03-03 02:12:00,
2013-03-02 18:13:00,69.1,17.8,30.11,NW,326,0.0,0.0,14,0.00,CLR,FEW,0.00,0.0,WeatherDisplay:10.37,2013-03-03 02:13:00,
2013-03-02 18:17:00,68.9,16.0,30.12,NW,310,0.5,6.5,13,0.00,CLR,FEW,0.00,0.0,WeatherDisplay:10.37,2013-03-03 02:17:00,
2013-03-02 18:18:00,69.1,16.1,30.12,WNW,301,0.0,6.9,13,0.00,CLR,FEW,0.00,0.0,WeatherDisplay:10.37,2013-03-03 02:18:00,
2013-03-02 18:19:00,69.1,16.1,30.12,WNW,284,0.1,1.2,13,0.00,CLR,FEW,0.00,0.0,WeatherDisplay:10.37,2013-03-03 02:19:00,
2013-03-02 18:21:00,69.3,14.4,30.12,WNW,286,0.0,0.0,12,0.00,CLR,FEW,0.00,0.0,WeatherDisplay:10.37,2013-03-03 02:21:00,
2013-03-02 18:23:00,69.3,16.3,30.12,WNW,286,0.0,0.0,13,0.00,CLR,FEW,0.00,0.0,WeatherDisplay:10.37,2013-03-03 02:23:00,
2013-03-02 18:24:00,69.3,16.3,30.12,WNW,286,0.0,0.0,13,0.00,CLR,FEW,0.00,0.0,WeatherDisplay:10.37,2013-03-03 02:24:00,
2013-03-02 18:26:00,68.4,20.4,30.12,ESE,110,0.0,0.0,16,0.00,CLR,FEW,0.00,0.0,WeatherDisplay:10.37,2013-03-03 02:26:00,
2013-03-02 18:28:00,68.1,20.2,30.12,ESE,104,0.0,0.0,16,0.00,CLR,FEW,0.00,0.0,WeatherDisplay:10.37,2013-03-03 02:28:00,
2013-03-02 18:29:00,67.9,20.0,30.12,ESE,104,0.0,0.0,16,0.00,CLR,FEW,0.00,0.0,WeatherDisplay:10.37,2013-03-03 02:29:00,
2013-03-02 18:30:00,67.8,19.9,30.12,ESE,105,0.0,0.0,16,0.00,CLR,FEW,0.00,0.0,WeatherDisplay:10.37,2013-03-03 02:30:00,
2013-03-02 18:31:00,67.8,16.8,30.12,SE,126,0.0,6.9,14,0.00,CLR,FEW,0.00,0.0,WeatherDisplay:10.37,2013-03-03 02:31:00,
2013-03-02 18:34:00,67.9,16.9,30.12,ESE,103,0.0,0.0,14,0.00,CLR,FEW,0.00,0.0,WeatherDisplay:10.37,2013-03-03 02:34:00,
2013-03-02 18:35:00,68.3,13.7,30.12,SE,129,1.1,5.8,12,0.00,CLR,FEW,0.00,0.0,WeatherDisplay:10.37,2013-03-03 02:35:00,
2013-03-02 18:36:00,68.4,13.7,30.12,SE,129,0.0,5.8,12,0.00,CLR,FEW,0.00,0.0,WeatherDisplay:10.37,2013-03-03 02:36:00,
2013-03-02 18:37:00,68.4,13.7,30.12,SE,129,0.0,5.8,12,0.00,CLR,FEW,0.00,0.0,WeatherDisplay:10.37,2013-03-03 02:37:00,
2013-03-02 18:39:00,68.6,15.7,30.12,ESE,106,0.0,0.0,13,0.00,CLR,FEW,0.00,0.0,WeatherDisplay:10.37,2013-03-03 02:39:00,
2013-03-02 18:41:00,68.4,17.3,30.12,ESE,106,0.0,0.0,14,0.00,CLR,FEW,0.00,0.0,WeatherDisplay:10.37,2013-03-03 02:41:00,
2013-03-02 18:42:00,68.1,20.2,30.12,ESE,106,0.0,0.0,16,0.00,CLR,FEW,0.00,0.0,WeatherDisplay:10.37,2013-03-03 02:42:00,
2013-03-02 18:44:00,67.8,16.8,30.12,ESE,111,0.0,0.0,14,0.00,CLR,FEW,0.00,0.0,WeatherDisplay:10.37,2013-03-03 02:44:00,
2013-03-02 18:46:00,67.8,15.1,30.12,ESE,106,0.0,0.0,13,0.00,CLR,FEW,0.00,0.0,WeatherDisplay:10.37,2013-03-03 02:46:00,
2013-03-02 18:47:00,67.9,16.9,30.12,ESE,106,0.0,0.0,14,0.00,CLR,FEW,0.00,0.0,WeatherDisplay:10.37,2013-03-03 02:47:00,
2013-03-02 18:48:00,67.8,18.4,30.12,ESE,107,0.0,0.0,15,0.00,CLR,FEW,0.00,0.0,WeatherDisplay:10.37,2013-03-03 02:48:00,
2013-03-02 18:49:00,67.6,18.3,30.12,ESE,106,0.0,0.0,15,0.00,CLR,FEW,0.00,0.0,WeatherDisplay:10.37,2013-03-03 02:49:00,
2013-03-02 18:52:00,66.6,17.4,30.12,ESE,107,0.0,0.0,15,0.00,CLR,FEW,0.00,0.0,WeatherDisplay:10.37,2013-03-03 02:52:00,
2013-03-02 18:53:00,66.6,17.4,30.12,ESE,107,0.0,0.0,15,0.00,CLR,FEW,0.00,0.0,WeatherDisplay:10.37,2013-03-03 02:53:00,
2013-03-02 18:54:00,66.6,15.9,30.12,ESE,107,0.0,0.0,14,0.00,CLR,FEW,0.00,0.0,WeatherDisplay:10.37,2013-03-03 02:54:00,
2013-03-02 18:58:00,67.9,13.3,30.12,ESE,107,0.0,0.0,12,0.00,CLR,FEW,0.00,0.0,WeatherDisplay:10.37,2013-03-03 02:58:00,
2013-03-02 18:59:00,67.9,9.2,30.12,ESE,107,0.0,0.0,10,0.00,CLR,FEW,0.00,0.0,WeatherDisplay:10.37,2013-03-03 02:59:00,
2013-03-02 19:00:00,68.3,9.5,30.12,ESE,107,0.0,0.0,10,0.00,CLR,FEW,0.00,0.0,WeatherDisplay:10.37,2013-03-03 03:00:00,
2013-03-02 19:01:00,68.1,9.4,30.12,ENE,74,0.0,0.0,10,0.00,CLR,FEW,0.00,0.0,WeatherDisplay:10.37,2013-03-03 03:01:00,
2013-03-02 19:03:00,67.4,14.8,30.12,ENE,76,0.0,0.0,13,0.00,CLR,FEW,0.00,0.0,WeatherDisplay:10.37,2013-03-03 03:03:00,
2013-03-02 19:04:00,67.3,14.7,30.12,ENE,77,0.0,0.0,13,0.00,CLR,FEW,0.00,0.0,WeatherDisplay:10.37,2013-03-03 03:04:00,
2013-03-02 19:05:00,67.1,16.3,30.12,East,80,0.0,0.0,14,0.00,CLR,FEW,0.00,0.0,WeatherDisplay:10.37,2013-03-03 03:05:00,
2013-03-02 19:07:00,66.4,20.2,30.12,East,80,0.0,0.0,17,0.00,CLR,FEW,0.00,0.0,WeatherDisplay:10.37,2013-03-03 03:07:00,
2013-03-02 19:09:00,66.0,17.0,30.12,East,80,0.0,0.0,15,0.00,CLR,FEW,0.00,0.0,WeatherDisplay:10.37,2013-03-03 03:09:00,
2013-03-02 19:11:00,65.5,15.0,30.12,East,80,0.0,0.0,14,0.00,CLR,FEW,0.00,0.0,WeatherDisplay:10.37,2013-03-03 03:11:00,
2013-03-02 19:12:00,65.5,16.6,30.12,East,80,0.0,0.0,15,0.00,CLR,FEW,0.00,0.0,WeatherDisplay:10.37,2013-03-03 03:12:00,
2013-03-02 19:14:00,65.5,15.0,30.12,East,98,0.0,0.0,14,0.00,CLR,FEW,0.00,0.0,WeatherDisplay:10.37,2013-03-03 03:14:00,
2013-03-02 19:15:00,65.6,15.1,30.13,East,98,0.0,0.0,14,0.00,CLR,FEW,0.00,0.0,WeatherDisplay:10.37,2013-03-03 03:15:00,
2013-03-02 19:16:00,65.6,15.1,30.13,ESE,102,0.0,0.0,14,0.00,CLR,FEW,0.00,0.0,WeatherDisplay:10.37,2013-03-03 03:16:00,
2013-03-02 19:18:00,65.6,15.1,30.13,ESE,103,0.0,0.0,14,0.00,CLR,FEW,0.00,0.0,WeatherDisplay:10.37,2013-03-03 03:18:00,
2013-03-02 19:20:00,65.6,15.1,30.13,ESE,103,0.0,0.0,14,0.00,CLR,FEW,0.00,0.0,WeatherDisplay:10.37,2013-03-03 03:20:00,
2013-03-02 19:22:00,65.5,15.0,30.13,ESE,103,0.0,0.0,14,0.00,CLR,FEW,0.00,0.0,WeatherDisplay:10.37,2013-03-03 03:22:00,
2013-03-02 19:23:00,65.3,16.4,30.13,ESE,103,0.0,0.0,15,0.00,CLR,FEW,0.00,0.0,WeatherDisplay:10.37,2013-03-03 03:23:00,
2013-03-02 19:25:00,65.2,14.7,30.13,East,101,0.0,0.0,14,0.00,CLR,FEW,0.00,0.0,WeatherDisplay:10.37,2013-03-03 03:25:00,
2013-03-02 19:27:00,65.2,14.7,30.13,East,101,0.0,0.0,14,0.00,CLR,FEW,0.00,0.0,WeatherDisplay:10.37,2013-03-03 03:27:00,
2013-03-02 19:28:00,65.2,14.7,30.13,East,101,0.0,0.0,14,0.00,CLR,FEW,0.00,0.0,WeatherDisplay:10.37,2013-03-03 03:28:00,
2013-03-02 19:30:00,65.0,14.6,30.14,East,101,0.0,0.0,14,0.00,CLR,FEW,0.00,0.0,WeatherDisplay:10.37,2013-03-03 03:30:00,
2013-03-02 19:32:00,65.0,16.2,30.14,East,101,0.0,0.0,15,0.00,CLR,FEW,0.00,0.0,WeatherDisplay:10.37,2013-03-03 03:32:00,
2013-03-02 19:33:00,64.8,16.0,30.14,East,101,0.0,0.0,15,0.00,CLR,FEW,0.00,0.0,WeatherDisplay:10.37,2013-03-03 03:33:00,
2013-03-02 19:34:00,64.8,14.4,30.14,East,101,0.0,0.0,14,0.00,CLR,FEW,0.00,0.0,WeatherDisplay:10.37,2013-03-03 03:34:00,
2013-03-02 19:36:00,64.5,14.2,30.14,East,101,0.0,0.0,14,0.00,CLR,FEW,0.00,0.0,WeatherDisplay:10.37,2013-03-03 03:36:00,
2013-03-02 19:37:00,64.5,14.2,30.14,East,101,0.0,0.0,14,0.00,CLR,FEW,0.00,0.0,WeatherDisplay:10.37,2013-03-03 03:37:00,
2013-03-02 19:38:00,64.5,14.2,30.14,East,101,0.0,0.0,14,0.00,CLR,FEW,0.00,0.0,WeatherDisplay:10.37,2013-03-03 03:38:00,
2013-03-02 19:39:00,63.9,16.8,30.14,East,101,0.0,0.0,16,0.00,CLR,FEW,0.00,0.0,WeatherDisplay:10.37,2013-03-03 03:39:00,
2013-03-02 19:42:00,63.4,16.4,30.14,East,101,0.0,0.0,16,0.00,CLR,FEW,0.00,0.0,WeatherDisplay:10.37,2013-03-03 03:42:00,
2013-03-02 19:43:00,63.4,14.9,30.14,East,101,0.0,0.0,15,0.00,CLR,FEW,0.00,0.0,WeatherDisplay:10.37,2013-03-03 03:43:00,
2013-03-02 19:44:00,63.4,16.4,30.14,East,101,0.0,0.0,16,0.00,CLR,FEW,0.00,0.0,WeatherDisplay:10.37,2013-03-03 03:44:00,
2013-03-02 19:48:00,62.7,15.8,30.14,East,101,0.0,0.0,16,0.00,CLR,FEW,0.00,0.0,WeatherDisplay:10.37,2013-03-03 03:48:00,
2013-03-02 19:49:00,62.6,17.1,30.14,East,101,0.0,0.0,17,0.00,CLR,FEW,0.00,0.0,WeatherDisplay:10.37,2013-03-03 03:49:00,
2013-03-02 19:50:00,62.4,17.0,30.14,East,101,0.0,0.0,17,0.00,CLR,FEW,0.00,0.0,WeatherDisplay:10.37,2013-03-03 03:50:00,
2013-03-02 19:53:00,61.6,16.3,30.14,East,100,0.0,0.0,17,0.00,CLR,FEW,0.00,0.0,WeatherDisplay:10.37,2013-03-03 03:53:00,
2013-03-02 19:54:00,61.3,16.1,30.14,East,100,0.0,0.0,17,0.00,CLR,FEW,0.00,0.0,WeatherDisplay:10.37,2013-03-03 03:54:00,
2013-03-02 19:55:00,61.2,16.0,30.14,East,100,0.0,0.0,17,0.00,CLR,FEW,0.00,0.0,WeatherDisplay:10.37,2013-03-03 03:55:00,
2013-03-02 19:56:00,61.0,15.8,30.14,East,100,0.0,0.0,17,0.00,CLR,FEW,0.00,0.0,WeatherDisplay:10.37,2013-03-03 03:56:00,
2013-03-02 19:58:00,60.7,15.6,30.14,East,100,0.0,0.0,17,0.00,CLR,FEW,0.00,0.0,WeatherDisplay:10.37,2013-03-03 03:58:00,
2013-03-02 20:00:00,60.7,15.6,30.14,ENE,63,0.0,0.0,17,0.00,CLR,FEW,0.00,0.0,WeatherDisplay:10.37,2013-03-03 04:00:00,
2013-03-02 20:01:00,60.7,15.6,30.14,ENE,63,0.0,0.0,17,0.00,CLR,FEW,0.00,0.0,WeatherDisplay:10.37,2013-03-03 04:01:00,
2013-03-02 20:02:00,60.7,15.6,30.14,ENE,64,0.0,0.0,17,0.00,CLR,FEW,0.00,0.0,WeatherDisplay:10.37,2013-03-03 04:02:00,
2013-03-02 20:03:00,60.9,15.7,30.14,ENE,65,0.0,0.0,17,0.00,CLR,FEW,0.00,0.0,WeatherDisplay:10.37,2013-03-03 04:03:00,
2013-03-02 20:05:00,61.2,16.0,30.14,ENE,65,0.0,0.0,17,0.00,CLR,FEW,0.00,0.0,WeatherDisplay:10.37,2013-03-03 04:05:00,
2013-03-02 20:06:00,61.3,14.7,30.14,ENE,65,0.0,0.0,16,0.00,CLR,FEW,0.00,0.0,WeatherDisplay:10.37,2013-03-03 04:06:00,
2013-03-02 20:07:00,61.3,14.7,30.14,ENE,65,0.0,0.0,16,0.00,CLR,FEW,0.00,0.0,WeatherDisplay:10.37,2013-03-03 04:07:00,
2013-03-02 20:09:00,61.5,14.8,30.14,ENE,65,0.0,0.0,16,0.00,CLR,FEW,0.00,0.0,WeatherDisplay:10.37,2013-03-03 04:09:00,
2013-03-02 20:11:00,61.6,16.3,30.14,ENE,65,0.0,0.0,17,0.00,CLR,FEW,0.00,0.0,WeatherDisplay:10.37,2013-03-03 04:11:00,
2013-03-02 20:12:00,61.5,16.2,30.14,ENE,65,0.0,0.0,17,0.00,CLR,FEW,0.00,0.0,WeatherDisplay:10.37,2013-03-03 04:12:00,
2013-03-02 20:14:00,61.0,15.8,30.14,ENE,68,0.0,0.0,17,0.00,CLR,FEW,0.00,0.0,WeatherDisplay:10.37,2013-03-03 04:14:00,
2013-03-02 20:17:00,60.9,15.7,30.14,East,94,0.1,1.2,17,0.00,CLR,FEW,0.00,0.0,WeatherDisplay:10.37,2013-03-03 04:17:00,
2013-03-02 20:19:00,60.7,15.6,30.14,East,82,0.2,6.9,17,0.00,CLR,FEW,0.00,0.0,WeatherDisplay:10.37,2013-03-03 04:19:00,
2013-03-02 20:22:00,60.5,15.4,30.14,ENE,72,0.0,0.0,17,0.00,CLR,FEW,0.00,0.0,WeatherDisplay:10.37,2013-03-03 04:22:00,
2013-03-02 20:23:00,60.5,15.4,30.14,ENE,73,0.0,0.0,17,0.00,CLR,FEW,0.00,0.0,WeatherDisplay:10.37,2013-03-03 04:23:00,
2013-03-02 20:25:00,60.5,15.4,30.14,ENE,74,0.0,0.0,17,0.00,CLR,FEW,0.00,0.0,WeatherDisplay:10.37,2013-03-03 04:25:00,
2013-03-02 20:27:00,60.4,15.3,30.14,ENE,76,0.0,0.0,17,0.00,CLR,FEW,0.00,0.0,WeatherDisplay:10.37,2013-03-03 04:27:00,
2013-03-02 20:28:00,60.2,15.2,30.14,ENE,74,0.0,0.0,17,0.00,CLR,FEW,0.00,0.0,WeatherDisplay:10.37,2013-03-03 04:28:00,
2013-03-02 20:30:00,60.2,15.2,30.14,ENE,76,0.0,0.0,17,0.00,CLR,FEW,0.00,0.0,WeatherDisplay:10.37,2013-03-03 04:30:00,
2013-03-02 20:32:00,60.1,15.1,30.14,ENE,76,0.0,0.0,17,0.00,CLR,FEW,0.00,0.0,WeatherDisplay:10.37,2013-03-03 04:32:00,
2013-03-02 20:34:00,60.2,15.2,30.14,ENE,76,0.0,0.0,17,0.00,CLR,FEW,0.00,0.0,WeatherDisplay:10.37,2013-03-03 04:34:00,
2013-03-02 20:37:00,60.4,15.3,30.14,ENE,76,0.0,0.0,17,0.00,CLR,FEW,0.00,0.0,WeatherDisplay:10.37,2013-03-03 04:37:00,
2013-03-02 20:38:00,60.5,15.4,30.14,ENE,76,0.0,0.0,17,0.00,CLR,FEW,0.00,0.0,WeatherDisplay:10.37,2013-03-03 04:38:00,
2013-03-02 20:39:00,60.7,15.6,30.14,ENE,76,0.0,0.0,17,0.00,CLR,FEW,0.00,0.0,WeatherDisplay:10.37,2013-03-03 04:39:00,
2013-03-02 20:42:00,60.4,15.3,30.14,ENE,78,0.0,0.0,17,0.00,CLR,FEW,0.00,0.0,WeatherDisplay:10.37,2013-03-03 04:42:00,
2013-03-02 20:44:00,59.6,16.0,30.14,East,80,0.8,3.5,18,0.00,CLR,FEW,0.00,0.0,WeatherDisplay:10.37,2013-03-03 04:44:00,
2013-03-02 20:46:00,59.0,16.7,30.14,East,80,0.3,0.0,19,0.00,CLR,FEW,0.00,0.0,WeatherDisplay:10.37,2013-03-03 04:46:00,
2013-03-02 20:47:00,58.7,16.5,30.14,East,80,0.0,1.2,19,0.00,CLR,FEW,0.00,0.0,WeatherDisplay:10.37,2013-03-03 04:47:00,
2013-03-02 20:48:00,58.6,16.4,30.14,East,80,1.8,3.5,19,0.00,CLR,FEW,0.00,0.0,WeatherDisplay:10.37,2013-03-03 04:48:00,
2013-03-02 20:49:00,58.4,16.2,30.14,East,80,0.1,6.9,19,0.00,CLR,FEW,0.00,0.0,WeatherDisplay:10.37,2013-03-03 04:49:00,
2013-03-02 20:51:00,58.3,16.2,30.14,East,81,0.6,6.9,19,0.00,CLR,FEW,0.00,0.0,WeatherDisplay:10.37,2013-03-03 04:51:00,
2013-03-02 20:52:00,58.1,16.0,30.14,East,81,0.0,0.0,19,0.00,CLR,FEW,0.00,0.0,WeatherDisplay:10.37,2013-03-03 04:52:00,
2013-03-02 20:53:00,58.1,16.0,30.14,ESE,106,1.8,5.2,19,0.00,CLR,FEW,0.00,0.0,WeatherDisplay:10.37,2013-03-03 04:53:00,
2013-03-02 20:54:00,58.3,16.2,30.14,East,91,1.0,0.0,19,0.00,CLR,FEW,0.00,0.0,WeatherDisplay:10.37,2013-03-03 04:54:00,
2013-03-02 20:57:00,58.7,15.2,30.14,ESE,102,0.5,3.5,18,0.00,CLR,FEW,0.00,0.0,WeatherDisplay:10.37,2013-03-03 04:57:00,
2013-03-02 20:58:00,58.9,15.4,30.14,ESE,102,0.5,3.5,18,0.00,CLR,FEW,0.00,0.0,WeatherDisplay:10.37,2013-03-03 04:58:00,
2013-03-02 21:00:00,59.0,15.5,30.14,ESE,103,1.1,0.0,18,0.00,CLR,FEW,0.00,0.0,WeatherDisplay:10.37,2013-03-03 05:00:00,
2013-03-02 21:01:00,59.0,15.5,30.14,East,100,0.0,3.5,18,0.00,CLR,FEW,0.00,0.0,WeatherDisplay:10.37,2013-03-03 05:01:00,
2013-03-02 21:03:00,59.2,15.7,30.14,East,101,0.8,3.5,18,0.00,CLR,FEW,0.00,0.0,WeatherDisplay:10.37,2013-03-03 05:03:00,
2013-03-02 21:05:00,59.3,15.7,30.14,East,96,0.0,1.3,18,0.00,CLR,FEW,0.00,0.0,WeatherDisplay:10.37,2013-03-03 05:05:00,
2013-03-02 21:06:00,59.2,15.7,30.14,ESE,106,0.1,1.2,18,0.00,CLR,FEW,0.00,0.0,WeatherDisplay:10.37,2013-03-03 05:06:00,
2013-03-02 21:07:00,59.2,15.7,30.14,ESE,105,0.1,3.5,18,0.00,CLR,FEW,0.00,0.0,WeatherDisplay:10.37,2013-03-03 05:07:00,
2013-03-02 21:09:00,59.2,15.7,30.14,East,99,0.9,6.9,18,0.00,CLR,FEW,0.00,0.0,WeatherDisplay:10.37,2013-03-03 05:09:00,
2013-03-02 21:10:00,59.3,15.7,30.14,East,80,0.0,0.0,18,0.00,CLR,FEW,0.00,0.0,WeatherDisplay:10.37,2013-03-03 05:10:00,
2013-03-02 21:12:00,59.3,15.7,30.14,East,84,0.0,0.0,18,0.00,CLR,FEW,0.00,0.0,WeatherDisplay:10.37,2013-03-03 05:12:00,
2013-03-02 21:13:00,59.3,15.7,30.14,East,84,0.0,0.0,18,0.00,CLR,FEW,0.00,0.0,WeatherDisplay:10.37,2013-03-03 05:13:00,
2013-03-02 21:15:00,59.3,15.7,30.15,East,85,0.0,0.0,18,0.00,CLR,FEW,0.00,0.0,WeatherDisplay:10.37,2013-03-03 05:15:00,
2013-03-02 21:16:00,59.3,14.4,30.15,East,86,0.0,0.0,17,0.00,CLR,FEW,0.00,0.0,WeatherDisplay:10.37,2013-03-03 05:16:00,
2013-03-02 21:18:00,59.5,14.6,30.15,East,90,0.0,0.0,17,0.00,CLR,FEW,0.00,0.0,WeatherDisplay:10.37,2013-03-03 05:18:00,
2013-03-02 21:21:00,59.5,14.6,30.15,East,90,0.0,0.0,17,0.00,CLR,FEW,0.00,0.0,WeatherDisplay:10.37,2013-03-03 05:21:00,
2013-03-02 21:22:00,59.6,14.7,30.15,East,94,0.1,0.0,17,0.00,CLR,FEW,0.00,0.0,WeatherDisplay:10.37,2013-03-03 05:22:00,
2013-03-02 21:23:00,59.6,14.7,30.15,East,93,0.0,1.2,17,0.00,CLR,FEW,0.00,0.0,WeatherDisplay:10.37,2013-03-03 05:23:00,
2013-03-02 21:24:00,59.6,14.7,30.15,East,93,0.1,0.0,17,0.00,CLR,FEW,0.00,0.0,WeatherDisplay:10.37,2013-03-03 05:24:00,
2013-03-02 21:26:00,59.5,14.6,30.15,East,93,1.0,3.9,17,0.00,CLR,FEW,0.00,0.0,WeatherDisplay:10.37,2013-03-03 05:26:00,
2013-03-02 21:28:00,59.6,14.7,30.15,East,98,1.1,3.5,17,0.00,CLR,FEW,0.00,0.0,WeatherDisplay:10.37,2013-03-03 05:28:00,
2013-03-02 21:30:00,59.8,14.8,30.15,ESE,106,0.4,3.9,17,0.00,CLR,FEW,0.00,0.0,WeatherDisplay:10.37,2013-03-03 05:30:00,
2013-03-02 21:31:00,59.9,14.9,30.15,ESE,105,0.6,3.5,17,0.00,CLR,FEW,0.00,0.0,WeatherDisplay:10.37,2013-03-03 05:31:00,
2013-03-02 21:34:00,59.8,14.8,30.15,ESE,104,0.0,0.0,17,0.00,CLR,FEW,0.00,0.0,WeatherDisplay:10.37,2013-03-03 05:34:00,
2013-03-02 21:36:00,59.5,14.6,30.15,ESE,111,0.2,1.2,17,0.00,CLR,FEW,0.00,0.0,WeatherDisplay:10.37,2013-03-03 05:36:00,
2013-03-02 21:38:00,59.2,14.3,30.15,ESE,103,2.1,6.9,17,0.00,CLR,FEW,0.00,0.0,WeatherDisplay:10.37,2013-03-03 05:38:00,
2013-03-02 21:39:00,59.2,14.3,30.15,East,98,0.0,1.3,17,0.00,CLR,FEW,0.00,0.0,WeatherDisplay:10.37,2013-03-03 05:39:00,
2013-03-02 21:40:00,59.0,14.2,30.15,East,99,0.0,1.2,17,0.00,CLR,FEW,0.00,0.0,WeatherDisplay:10.37,2013-03-03 05:40:00,
2013-03-02 21:41:00,59.0,14.2,30.15,East,95,0.2,1.2,17,0.00,CLR,FEW,0.00,0.0,WeatherDisplay:10.37,2013-03-03 05:41:00,
2013-03-02 21:44:00,58.9,15.4,30.15,East,101,0.0,0.0,18,0.00,CLR,FEW,0.00,0.0,WeatherDisplay:10.37,2013-03-03 05:44:00,
2013-03-02 21:45:00,58.7,13.9,30.15,East,100,0.0,0.0,17,0.00,CLR,FEW,0.00,0.0,WeatherDisplay:10.37,2013-03-03 05:45:00,
2013-03-02 21:46:00,58.7,15.2,30.15,East,100,0.0,0.0,18,0.00,CLR,FEW,0.00,0.0,WeatherDisplay:10.37,2013-03-03 05:46:00,
2013-03-02 21:49:00,58.4,15.0,30.15,East,99,0.0,0.0,18,0.00,CLR,FEW,0.00,0.0,WeatherDisplay:10.37,2013-03-03 05:49:00,
2013-03-02 21:50:00,58.3,14.9,30.15,East,91,2.5,7.8,18,0.00,CLR,FEW,0.00,0.0,WeatherDisplay:10.37,2013-03-03 05:50:00,
2013-03-02 21:51:00,58.3,14.9,30.15,East,94,2.2,8.1,18,0.00,CLR,FEW,0.00,0.0,WeatherDisplay:10.37,2013-03-03 05:51:00,
2013-03-02 21:54:00,58.0,14.7,30.15,East,88,0.7,0.0,18,0.00,CLR,FEW,0.00,0.0,WeatherDisplay:10.37,2013-03-03 05:54:00,
2013-03-02 21:55:00,58.0,14.7,30.15,East,92,0.0,3.5,18,0.00,CLR,FEW,0.00,0.0,WeatherDisplay:10.37,2013-03-03 05:55:00,
2013-03-02 21:56:00,58.1,14.8,30.15,East,90,0.0,0.0,18,0.00,CLR,FEW,0.00,0.0,WeatherDisplay:10.37,2013-03-03 05:56:00,
2013-03-02 21:57:00,58.1,14.8,30.15,East,94,2.1,3.5,18,0.00,CLR,FEW,0.00,0.0,WeatherDisplay:10.37,2013-03-03 05:57:00,
2013-03-02 21:59:00,58.1,14.8,30.15,East,94,0.0,0.0,18,0.00,CLR,FEW,0.00,0.0,WeatherDisplay:10.37,2013-03-03 05:59:00,
2013-03-02 22:01:00,58.1,14.8,30.15,ENE,63,0.0,0.0,18,0.00,CLR,FEW,0.00,0.0,WeatherDisplay:10.37,2013-03-03 06:01:00,
2013-03-02 22:02:00,58.1,14.8,30.15,ENE,63,0.0,0.0,18,0.00,CLR,FEW,0.00,0.0,WeatherDisplay:10.37,2013-03-03 06:02:00,
2013-03-02 22:04:00,58.1,14.8,30.15,ENE,63,0.0,0.0,18,0.00,CLR,FEW,0.00,0.0,WeatherDisplay:10.37,2013-03-03 06:04:00,
2013-03-02 22:06:00,58.3,13.6,30.15,ENE,64,0.0,0.0,17,0.00,CLR,FEW,0.00,0.0,WeatherDisplay:10.37,2013-03-03 06:06:00,
2013-03-02 22:07:00,58.6,13.9,30.15,ENE,64,0.0,0.0,17,0.00,CLR,FEW,0.00,0.0,WeatherDisplay:10.37,2013-03-03 06:07:00,
2013-03-02 22:09:00,58.7,15.2,30.15,ENE,64,0.0,0.0,18,0.00,CLR,FEW,0.00,0.0,WeatherDisplay:10.37,2013-03-03 06:09:00,
2013-03-02 22:10:00,58.7,15.2,30.15,ENE,64,0.0,0.0,18,0.00,CLR,FEW,0.00,0.0,WeatherDisplay:10.37,2013-03-03 06:10:00,
2013-03-02 22:11:00,58.7,13.9,30.15,ENE,64,0.0,0.0,17,0.00,CLR,FEW,0.00,0.0,WeatherDisplay:10.37,2013-03-03 06:11:00,
2013-03-02 22:14:00,58.7,13.9,30.15,ENE,64,0.0,0.0,17,0.00,CLR,FEW,0.00,0.0,WeatherDisplay:10.37,2013-03-03 06:14:00,
2013-03-02 22:15:00,58.7,13.9,30.15,ENE,64,0.0,0.0,17,0.00,CLR,FEW,0.00,0.0,WeatherDisplay:10.37,2013-03-03 06:15:00,
2013-03-02 22:16:00,58.9,14.1,30.15,ENE,64,0.0,0.0,17,0.00,CLR,FEW,0.00,0.0,WeatherDisplay:10.37,2013-03-03 06:16:00,
2013-03-02 22:18:00,58.7,13.9,30.15,ENE,64,0.0,0.0,17,0.00,CLR,FEW,0.00,0.0,WeatherDisplay:10.37,2013-03-03 06:18:00,
2013-03-02 22:19:00,58.7,13.9,30.15,ENE,65,0.0,0.0,17,0.00,CLR,FEW,0.00,0.0,WeatherDisplay:10.37,2013-03-03 06:19:00,
2013-03-02 22:21:00,58.7,13.9,30.15,ENE,64,0.0,0.0,17,0.00,CLR,FEW,0.00,0.0,WeatherDisplay:10.37,2013-03-03 06:21:00,
2013-03-02 22:22:00,58.7,13.9,30.15,ENE,64,0.0,0.0,17,0.00,CLR,FEW,0.00,0.0,WeatherDisplay:10.37,2013-03-03 06:22:00,
2013-03-02 22:24:00,58.6,15.2,30.15,ENE,64,0.0,0.0,18,0.00,CLR,FEW,0.00,0.0,WeatherDisplay:10.37,2013-03-03 06:24:00,
2013-03-02 22:27:00,58.4,13.7,30.15,ENE,65,0.0,0.0,17,0.00,CLR,FEW,0.00,0.0,WeatherDisplay:10.37,2013-03-03 06:27:00,
2013-03-02 22:30:00,58.3,13.6,30.15,ENE,65,0.0,0.0,17,0.00,CLR,FEW,0.00,0.0,WeatherDisplay:10.37,2013-03-03 06:30:00,
2013-03-02 22:31:00,58.1,14.8,30.14,ENE,65,0.0,0.0,18,0.00,CLR,FEW,0.00,0.0,WeatherDisplay:10.37,2013-03-03 06:31:00,
2013-03-02 22:32:00,58.0,14.7,30.14,ENE,65,0.0,0.0,18,0.00,CLR,FEW,0.00,0.0,WeatherDisplay:10.37,2013-03-03 06:32:00,
2013-03-02 22:33:00,57.5,15.5,30.14,ENE,65,0.0,0.0,19,0.00,CLR,FEW,0.00,0.0,WeatherDisplay:10.37,2013-03-03 06:33:00,
2013-03-02 22:35:00,57.2,15.2,30.14,ENE,65,0.0,0.0,19,0.00,CLR,FEW,0.00,0.0,WeatherDisplay:10.37,2013-03-03 06:35:00,
2013-03-02 22:37:00,56.9,16.2,30.14,ENE,65,0.0,0.0,20,0.00,CLR,FEW,0.00,0.0,WeatherDisplay:10.37,2013-03-03 06:37:00,
2013-03-02 22:39:00,56.9,15.0,30.14,ENE,65,0.0,0.0,19,0.00,CLR,FEW,0.00,0.0,WeatherDisplay:10.37,2013-03-03 06:39:00,
2013-03-02 22:40:00,56.7,16.0,30.14,ENE,65,0.0,0.0,20,0.00,CLR,FEW,0.00,0.0,WeatherDisplay:10.37,2013-03-03 06:40:00,
2013-03-02 22:42:00,56.7,14.8,30.14,East,88,0.0,1.2,19,0.00,CLR,FEW,0.00,0.0,WeatherDisplay:10.37,2013-03-03 06:42:00,
2013-03-02 22:44:00,56.7,14.8,30.14,ENE,71,0.0,0.0,19,0.00,CLR,FEW,0.00,0.0,WeatherDisplay:10.37,2013-03-03 06:44:00,
2013-03-02 22:45:00,56.7,14.8,30.14,East,87,0.0,0.0,19,0.00,CLR,FEW,0.00,0.0,WeatherDisplay:10.37,2013-03-03 06:45:00,
2013-03-02 22:47:00,56.9,15.0,30.13,East,87,0.0,0.0,19,0.00,CLR,FEW,0.00,0.0,WeatherDisplay:10.37,2013-03-03 06:47:00,
2013-03-02 22:50:00,56.9,15.0,30.13,East,87,0.0,0.0,19,0.00,CLR,FEW,0.00,0.0,WeatherDisplay:10.37,2013-03-03 06:50:00,
2013-03-02 22:51:00,56.9,15.0,30.13,East,87,0.0,0.0,19,0.00,CLR,FEW,0.00,0.0,WeatherDisplay:10.37,2013-03-03 06:51:00,
2013-03-02 22:54:00,57.2,14.0,30.13,ENE,62,0.0,0.0,18,0.00,CLR,FEW,0.00,0.0,WeatherDisplay:10.37,2013-03-03 06:54:00,
2013-03-02 22:55:00,57.2,14.0,30.13,ENE,62,0.0,0.0,18,0.00,CLR,FEW,0.00,0.0,WeatherDisplay:10.37,2013-03-03 06:55:00,
2013-03-02 22:56:00,57.2,14.0,30.13,ENE,62,0.0,0.0,18,0.00,CLR,FEW,0.00,0.0,WeatherDisplay:10.37,2013-03-03 06:56:00,
2013-03-02 23:01:00,57.5,14.3,30.13,ENE,78,0.0,0.0,18,0.00,CLR,FEW,0.00,0.0,WeatherDisplay:10.37,2013-03-03 07:01:00,
2013-03-02 23:06:00,57.2,14.0,30.13,ENE,78,0.0,0.0,18,0.00,CLR,FEW,0.00,0.0,WeatherDisplay:10.37,2013-03-03 07:06:00,
2013-03-02 23:07:00,57.0,13.8,30.13,ENE,78,0.0,0.0,18,0.00,CLR,FEW,0.00,0.0,WeatherDisplay:10.37,2013-03-03 07:07:00,
2013-03-02 23:11:00,57.2,14.0,30.13,ENE,69,0.0,0.0,18,0.00,CLR,FEW,0.00,0.0,WeatherDisplay:10.37,2013-03-03 07:11:00,
2013-03-02 23:12:00,57.3,14.1,30.13,ENE,71,0.0,0.0,18,0.00,CLR,FEW,0.00,0.0,WeatherDisplay:10.37,2013-03-03 07:12:00,
2013-03-02 23:14:00,57.2,14.0,30.13,ENE,71,0.0,0.0,18,0.00,CLR,FEW,0.00,0.0,WeatherDisplay:10.37,2013-03-03 07:14:00,
2013-03-02 23:16:00,57.2,14.0,30.12,ESE,121,0.0,1.2,18,0.00,CLR,FEW,0.00,0.0,WeatherDisplay:10.37,2013-03-03 07:16:00,
2013-03-02 23:17:00,57.0,13.8,30.12,ESE,121,0.0,0.0,18,0.00,CLR,FEW,0.00,0.0,WeatherDisplay:10.37,2013-03-03 07:17:00,
2013-03-02 23:19:00,57.0,13.8,30.12,East,89,0.0,0.0,18,0.00,CLR,FEW,0.00,0.0,WeatherDisplay:10.37,2013-03-03 07:19:00,
2013-03-02 23:21:00,57.2,14.0,30.12,East,93,0.1,8.1,18,0.00,CLR,FEW,0.00,0.0,WeatherDisplay:10.37,2013-03-03 07:21:00,
2013-03-02 23:22:00,57.2,14.0,30.12,East,93,0.0,1.2,18,0.00,CLR,FEW,0.00,0.0,WeatherDisplay:10.37,2013-03-03 07:22:00,
2013-03-02 23:24:00,57.0,13.8,30.12,East,93,0.0,0.0,18,0.00,CLR,FEW,0.00,0.0,WeatherDisplay:10.37,2013-03-03 07:24:00,
2013-03-02 23:27:00,56.9,13.8,30.12,East,96,0.0,0.0,18,0.00,CLR,FEW,0.00,0.0,WeatherDisplay:10.37,2013-03-03 07:27:00,
2013-03-02 23:28:00,56.9,13.8,30.12,East,96,0.0,0.0,18,0.00,CLR,FEW,0.00,0.0,WeatherDisplay:10.37,2013-03-03 07:28:00,
2013-03-02 23:29:00,56.7,13.6,30.12,East,96,0.0,0.0,18,0.00,CLR,FEW,0.00,0.0,WeatherDisplay:10.37,2013-03-03 07:29:00,
2013-03-02 23:32:00,56.9,13.8,30.12,East,94,2.8,6.9,18,0.00,CLR,FEW,0.00,0.0,WeatherDisplay:10.37,2013-03-03 07:32:00,
2013-03-02 23:33:00,56.9,13.8,30.12,ESE,114,1.7,6.9,18,0.00,CLR,FEW,0.00,0.0,WeatherDisplay:10.37,2013-03-03 07:33:00,
2013-03-02 23:34:00,56.9,13.8,30.12,East,98,0.3,5.8,18,0.00,CLR,FEW,0.00,0.0,WeatherDisplay:10.37,2013-03-03 07:34:00,
2013-03-02 23:37:00,56.7,13.6,30.12,NE,49,0.0,0.0,18,0.00,CLR,FEW,0.00,0.0,WeatherDisplay:10.37,2013-03-03 07:37:00,
2013-03-02 23:38:00,56.7,13.6,30.12,East,80,0.0,0.0,18,0.00,CLR,FEW,0.00,0.0,WeatherDisplay:10.37,2013-03-03 07:38:00,
2013-03-02 23:39:00,56.7,13.6,30.12,East,83,0.0,0.0,18,0.00,CLR,FEW,0.00,0.0,WeatherDisplay:10.37,2013-03-03 07:39:00,
2013-03-02 23:40:00,56.6,13.5,30.12,NE,52,0.0,0.0,18,0.00,CLR,FEW,0.00,0.0,WeatherDisplay:10.37,2013-03-03 07:40:00,
2013-03-02 23:42:00,56.5,14.7,30.12,NNE,17,0.0,0.0,19,0.00,CLR,FEW,0.00,0.0,WeatherDisplay:10.37,2013-03-03 07:42:00,
2013-03-02 23:43:00,56.5,13.4,30.12,NNE,17,0.0,0.0,18,0.00,CLR,FEW,0.00,0.0,WeatherDisplay:10.37,2013-03-03 07:43:00,
2013-03-02 23:46:00,56.5,13.4,30.12,NNE,20,0.0,0.0,18,0.00,CLR,FEW,0.00,0.0,WeatherDisplay:10.37,2013-03-03 07:46:00,
2013-03-02 23:47:00,56.6,13.5,30.12,NNE,22,0.0,0.0,18,0.00,CLR,FEW,0.00,0.0,WeatherDisplay:10.37,2013-03-03 07:47:00,
2013-03-02 23:48:00,56.6,13.5,30.12,NNE,22,0.0,0.0,18,0.00,CLR,FEW,0.00,0.0,WeatherDisplay:10.37,2013-03-03 07:48:00,
2013-03-02 23:50:00,56.7,13.6,30.12,NNE,22,0.0,0.0,18,0.00,CLR,FEW,0.00,0.0,WeatherDisplay:10.37,2013-03-03 07:50:00,
2013-03-02 23:51:00,56.7,13.6,30.12,NNE,22,0.0,0.0,18,0.00,CLR,FEW,0.00,0.0,WeatherDisplay:10.37,2013-03-03 07:51:00,
2013-03-02 23:52:00,56.9,13.8,30.12,NNE,24,0.0,0.0,18,0.00,CLR,FEW,0.00,0.0,WeatherDisplay:10.37,2013-03-03 07:52:00,
2013-03-02 23:53:00,56.9,13.8,30.12,NNE,24,0.0,0.0,18,0.00,CLR,FEW,0.00,0.0,WeatherDisplay:10.37,2013-03-03 07:53:00,
2013-03-02 23:55:00,56.9,13.8,30.12,ENE,61,0.1,1.3,18,0.00,CLR,FEW,0.00,0.0,WeatherDisplay:10.37,2013-03-03 07:55:00,
2013-03-02 23:56:00,56.9,13.8,30.12,ENE,61,0.1,1.2,18,0.00,CLR,FEW,0.00,0.0,WeatherDisplay:10.37,2013-03-03 07:56:00,
2013-03-02 23:58:00,57.0,12.5,30.12,ENE,57,0.0,0.0,17,0.00,CLR,FEW,0.00,0.0,WeatherDisplay:10.37,2013-03-03 07:58:00,